| time (UTC) | temp F | wind direction | speed MPH | gust MPH | rain 1hr in | rain 24hr in | rain mn in | humidity % | barometer mb |
| 20260503224706 | 56 | 113 | 8.0 | 17.0 | 0.01 | 0.01 | 0.01 | 55 | 1007.7 |
| 20260503224605 | 55 | 103 | 6.0 | 17.0 | 0.01 | 0.01 | 0.01 | 51 | 1007.8 |
| 20260503224406 | 55 | 134 | 4.0 | 17.0 | 0.01 | 0.01 | 0.01 | 61 | 1008.5 |
| 20260503224306 | 55 | 130 | 2.0 | 17.0 | 0.01 | 0.01 | 0.01 | 61 | 1008.4 |
| 20260503224205 | 56 | 152 | 4.0 | 17.0 | 0.00 | 0.00 | 0.00 | 60 | 1008.3 |
| 20260503224106 | 56 | 170 | 4.0 | 17.0 | 0.00 | 0.00 | 0.00 | 60 | 1008.4 |
| 20260503224005 | 56 | 200 | 9.0 | 17.0 | 0.00 | 0.00 | 0.00 | 58 | 1008.5 |
| 20260503223705 | 57 | 229 | 7.0 | 15.0 | 0.00 | 0.00 | 0.00 | 56 | 1008.2 |
| 20260503223606 | 57 | 214 | 5.0 | 12.0 | 0.00 | 0.00 | 0.00 | 50 | 1008.5 |
| 20260503223505 | 57 | 281 | 5.0 | 12.0 | 0.00 | 0.00 | 0.00 | 50 | 1008.3 |
| 20260503223405 | 57 | 345 | 3.0 | 11.0 | 0.00 | 0.00 | 0.00 | 49 | 1008.4 |
| 20260503223306 | 57 | 35 | 4.0 | 11.0 | 0.00 | 0.00 | 0.00 | 50 | 1008.5 |
| 20260503223205 | 57 | 86 | 6.0 | 11.0 | 0.00 | 0.00 | 0.00 | 51 | 1008.5 |
| 20260503223106 | 57 | 89 | 2.0 | 12.0 | 0.00 | 0.00 | 0.00 | 51 | 1008.5 |
| 20260503223006 | 57 | 79 | 2.0 | 12.0 | 0.00 | 0.00 | 0.00 | 52 | 1008.4 |
| 20260503222905 | 57 | 96 | 4.0 | 15.0 | 0.00 | 0.00 | 0.00 | 52 | 1008.4 |
| 20260503222806 | 57 | 103 | 4.0 | 15.0 | 0.00 | 0.00 | 0.00 | 51 | 1008.4 |
| 20260503222705 | 57 | 93 | 4.0 | 15.0 | 0.00 | 0.00 | 0.00 | 51 | 1008.5 |
| 20260503222606 | 57 | 95 | 4.0 | 15.0 | 0.00 | 0.00 | 0.00 | 50 | 1008.4 |
| 20260503222505 | 58 | 92 | 5.0 | 15.0 | 0.00 | 0.00 | 0.00 | 50 | 1008.6 |
| 20260503222406 | 58 | 104 | 4.0 | 15.0 | 0.00 | 0.00 | 0.00 | 50 | 1008.5 |
| 20260503222306 | 58 | 102 | 8.0 | 15.0 | 0.00 | 0.00 | 0.00 | 50 | 1008.5 |
| 20260503222205 | 58 | 76 | 6.0 | 22.0 | 0.00 | 0.00 | 0.00 | 50 | 1008.5 |
| 20260503222105 | 58 | 87 | 7.0 | 22.0 | 0.00 | 0.00 | 0.00 | 49 | 1008.7 |
| 20260503222006 | 58 | 284 | 7.0 | 22.0 | 0.00 | 0.00 | 0.00 | 50 | 1008.6 |
| 20260503221805 | 58 | 282 | 6.0 | 22.0 | 0.00 | 0.00 | 0.00 | 50 | 1008.5 |
| 20260503221706 | 58 | 280 | 6.0 | 22.0 | 0.00 | 0.00 | 0.00 | 50 | 1008.6 |
| 20260503221606 | 59 | 277 | 5.0 | 22.0 | 0.00 | 0.00 | 0.00 | 50 | 1008.6 |
| 20260503221505 | 59 | 259 | 9.0 | 22.0 | 0.00 | 0.00 | 0.00 | 50 | 1008.7 |
| 20260503221406 | 59 | 255 | 5.0 | 22.0 | 0.00 | 0.00 | 0.00 | 49 | 1008.5 |
| 20260503221206 | 60 | 222 | 6.0 | 16.0 | 0.00 | 0.00 | 0.00 | 48 | 1008.4 |
| 20260503221105 | 60 | 199 | 7.0 | 16.0 | 0.00 | 0.00 | 0.00 | 47 | 1008.4 |
| 20260503221006 | 60 | 154 | 5.0 | 15.0 | 0.00 | 0.00 | 0.00 | 47 | 1008.3 |
| 20260503220805 | 61 | 127 | 5.0 | 15.0 | 0.00 | 0.00 | 0.00 | 45 | 1008.2 |
| 20260503220605 | 62 | 133 | 6.0 | 15.0 | 0.00 | 0.00 | 0.00 | 44 | 1008.2 |
| 20260503220406 | 62 | 153 | 5.0 | 16.0 | 0.00 | 0.00 | 0.00 | 43 | 1008.1 |
| 20260503220305 | 62 | 163 | 4.0 | 16.0 | 0.00 | 0.00 | 0.00 | 43 | 1008.1 |
| 20260503220206 | 62 | 172 | 6.0 | 16.0 | 0.00 | 0.00 | 0.00 | 44 | 1008.0 |
| 20260503220106 | 62 | 184 | 8.0 | 16.0 | 0.00 | 0.00 | 0.00 | 44 | 1008.0 |
| 20260503215906 | 62 | 211 | 8.0 | 17.0 | 0.00 | 0.00 | 0.00 | 43 | 1007.9 |
| 20260503215805 | 62 | 218 | 5.0 | 17.0 | 0.00 | 0.00 | 0.00 | 44 | 1008.0 |
| 20260503215706 | 61 | 230 | 4.0 | 20.0 | 0.00 | 0.00 | 0.00 | 44 | 1008.0 |
| 20260503215505 | 61 | 244 | 10.0 | 20.0 | 0.00 | 0.00 | 0.00 | 45 | 1007.8 |
| 20260503215406 | 61 | 249 | 10.0 | 20.0 | 0.00 | 0.00 | 0.00 | 45 | 1007.8 |
| 20260503215305 | 60 | 257 | 8.0 | 20.0 | 0.00 | 0.00 | 0.00 | 46 | 1007.8 |
| 20260503215205 | 60 | 260 | 9.0 | 20.0 | 0.00 | 0.00 | 0.00 | 46 | 1007.7 |
| 20260503215106 | 60 | 259 | 12.0 | 20.0 | 0.00 | 0.00 | 0.00 | 47 | 1007.7 |
| 20260503215005 | 60 | 260 | 12.0 | 20.0 | 0.00 | 0.00 | 0.00 | 47 | 1007.6 |
| 20260503214806 | 60 | 251 | 11.0 | 21.0 | 0.00 | 0.00 | 0.00 | 47 | 1007.4 |
| 20260503214705 | 59 | 245 | 10.0 | 23.0 | 0.00 | 0.00 | 0.00 | 48 | 1007.4 |
| 20260503214606 | 59 | 238 | 9.0 | 23.0 | 0.00 | 0.00 | 0.00 | 48 | 1007.3 |
| 20260503214506 | 59 | 235 | 10.0 | 23.0 | 0.00 | 0.00 | 0.00 | 49 | 1007.2 |
| 20260503214406 | 59 | 231 | 12.0 | 23.0 | 0.00 | 0.00 | 0.00 | 49 | 1007.1 |
| 20260503214305 | 58 | 232 | 11.0 | 23.0 | 0.00 | 0.00 | 0.00 | 49 | 1007.2 |
| 20260503214206 | 58 | 235 | 11.0 | 23.0 | 0.00 | 0.00 | 0.00 | 50 | 1007.2 |
| 20260503214005 | 58 | 234 | 10.0 | 23.0 | 0.00 | 0.00 | 0.00 | 52 | 1007.2 |
| 20260503213706 | 57 | 240 | 16.0 | 23.0 | 0.00 | 0.00 | 0.00 | 51 | 1006.9 |
| 20260503213605 | 56 | 244 | 11.0 | 23.0 | 0.00 | 0.00 | 0.00 | 54 | 1007.1 |
| 20260503213505 | 56 | 249 | 11.0 | 23.0 | 0.00 | 0.00 | 0.00 | 54 | 1007.1 |
| 20260503213408 | 56 | 254 | 10.0 | 23.0 | 0.00 | 0.00 | 0.00 | 55 | 1007.0 |
| 20260503213305 | 56 | 250 | 15.0 | 23.0 | 0.00 | 0.00 | 0.00 | 56 | 1007.0 |
| 20260503213205 | 55 | 242 | 12.0 | 24.0 | 0.00 | 0.00 | 0.00 | 57 | 1007.1 |
| 20260503213106 | 55 | 247 | 14.0 | 24.0 | 0.00 | 0.00 | 0.00 | 57 | 1006.9 |
| 20260503213006 | 55 | 254 | 15.0 | 24.0 | 0.00 | 0.00 | 0.00 | 58 | 1006.9 |
| 20260503212905 | 55 | 255 | 15.0 | 25.0 | 0.00 | 0.00 | 0.00 | 57 | 1006.9 |
| 20260503212705 | 55 | 246 | 15.0 | 30.0 | 0.00 | 0.00 | 0.00 | 57 | 1006.9 |
| 20260503212606 | 55 | 243 | 12.0 | 30.0 | 0.00 | 0.00 | 0.00 | 57 | 1006.9 |
| 20260503212505 | 55 | 242 | 12.0 | 30.0 | 0.00 | 0.00 | 0.00 | 57 | 1006.9 |
| 20260503212405 | 55 | 242 | 15.0 | 30.0 | 0.00 | 0.00 | 0.00 | 58 | 1007.2 |
| 20260503212306 | 55 | 245 | 19.0 | 30.0 | 0.00 | 0.00 | 0.00 | 58 | 1007.2 |
| 20260503212205 | 54 | 244 | 15.0 | 30.0 | 0.00 | 0.00 | 0.00 | 60 | 1007.4 |
| 20260503212006 | 54 | 233 | 17.0 | 30.0 | 0.00 | 0.00 | 0.00 | 59 | 1007.5 |
| 20260503211905 | 54 | 239 | 21.0 | 30.0 | 0.00 | 0.00 | 0.00 | 58 | 1007.4 |
| 20260503211806 | 54 | 250 | 19.0 | 30.0 | 0.00 | 0.00 | 0.00 | 58 | 1007.2 |
| 20260503211706 | 54 | 256 | 20.0 | 30.0 | 0.00 | 0.00 | 0.00 | 59 | 1007.4 |
| 20260503211605 | 55 | 251 | 9.0 | 24.0 | 0.00 | 0.00 | 0.00 | 60 | 1007.6 |
| 20260503211506 | 55 | 220 | 12.0 | 24.0 | 0.00 | 0.00 | 0.00 | 60 | 1007.7 |
| 20260503211405 | 55 | 198 | 15.0 | 24.0 | 0.00 | 0.00 | 0.00 | 59 | 1007.6 |
| 20260503211306 | 55 | 162 | 10.0 | 24.0 | 0.00 | 0.00 | 0.00 | 59 | 1007.7 |
| 20260503211205 | 55 | 151 | 14.0 | 24.0 | 0.00 | 0.00 | 0.00 | 59 | 1007.5 |
| 20260503211105 | 55 | 130 | 6.0 | 21.0 | 0.00 | 0.00 | 0.00 | 60 | 1007.4 |
| 20260503211006 | 55 | 147 | 6.0 | 21.0 | 0.00 | 0.00 | 0.00 | 60 | 1007.4 |
| 20260503210806 | 56 | 154 | 6.0 | 21.0 | 0.00 | 0.00 | 0.00 | 57 | 1007.5 |
| 20260503210705 | 56 | 152 | 6.0 | 21.0 | 0.00 | 0.00 | 0.00 | 56 | 1007.4 |
| 20260503210606 | 56 | 143 | 8.0 | 21.0 | 0.00 | 0.00 | 0.00 | 56 | 1007.5 |
| 20260503210505 | 56 | 144 | 8.0 | 21.0 | 0.00 | 0.00 | 0.00 | 56 | 1007.5 |
| 20260503210406 | 56 | 150 | 7.0 | 21.0 | 0.00 | 0.00 | 0.00 | 55 | 1007.5 |
| 20260503210305 | 56 | 157 | 10.0 | 21.0 | 0.00 | 0.00 | 0.00 | 55 | 1007.4 |
| 20260503210205 | 56 | 164 | 11.0 | 23.0 | 0.00 | 0.00 | 0.00 | 55 | 1007.4 |
| 20260503210006 | 57 | 148 | 11.0 | 25.0 | 0.00 | 0.00 | 0.00 | 53 | 1007.4 |
| 20260503205906 | 57 | 136 | 14.0 | 25.0 | 0.00 | 0.00 | 0.00 | 52 | 1007.3 |
| 20260503205805 | 57 | 130 | 13.0 | 25.0 | 0.00 | 0.00 | 0.00 | 50 | 1007.3 |
| 20260503205706 | 57 | 129 | 14.0 | 25.0 | 0.00 | 0.00 | 0.00 | 49 | 1007.3 |
| 20260503205506 | 57 | 133 | 8.0 | 25.0 | 0.00 | 0.00 | 0.00 | 48 | 1007.3 |
| 20260503205405 | 58 | 127 | 11.0 | 25.0 | 0.00 | 0.00 | 0.00 | 48 | 1007.4 |
| 20260503205305 | 58 | 134 | 11.0 | 25.0 | 0.00 | 0.00 | 0.00 | 48 | 1007.2 |
| 20260503205206 | 58 | 128 | 15.0 | 25.0 | 0.00 | 0.00 | 0.00 | 47 | 1007.2 |
| 20260503205105 | 58 | 120 | 15.0 | 25.0 | 0.00 | 0.00 | 0.00 | 46 | 1007.3 |
| 20260503205006 | 58 | 114 | 15.0 | 25.0 | 0.00 | 0.00 | 0.00 | 46 | 1007.2 |
| 20260503204905 | 59 | 112 | 11.0 | 23.0 | 0.00 | 0.00 | 0.00 | 46 | 1007.3 |
| 20260503204806 | 59 | 115 | 12.0 | 23.0 | 0.00 | 0.00 | 0.00 | 45 | 1007.1 |
| 20260503204506 | 60 | 107 | 11.0 | 23.0 | 0.00 | 0.00 | 0.00 | 43 | 1007.0 |
| 20260503204405 | 60 | 104 | 12.0 | 23.0 | 0.00 | 0.00 | 0.00 | 43 | 1007.0 |
| 20260503204306 | 60 | 102 | 11.0 | 23.0 | 0.00 | 0.00 | 0.00 | 42 | 1007.0 |
| 20260503204205 | 60 | 107 | 13.0 | 23.0 | 0.00 | 0.00 | 0.00 | 42 | 1007.0 |
| 20260503204006 | 61 | 142 | 15.0 | 21.0 | 0.00 | 0.00 | 0.00 | 42 | 1006.8 |
| 20260503203806 | 62 | 146 | 15.0 | 21.0 | 0.00 | 0.00 | 0.00 | 40 | 1006.6 |
| 20260503203705 | 62 | 155 | 12.0 | 27.0 | 0.00 | 0.00 | 0.00 | 39 | 1006.5 |
| 20260503203405 | 63 | 181 | 13.0 | 27.0 | 0.00 | 0.00 | 0.00 | 37 | 1006.3 |
| 20260503203306 | 63 | 148 | 11.0 | 27.0 | 0.00 | 0.00 | 0.00 | 36 | 1006.4 |
| 20260503203106 | 64 | 109 | 11.0 | 27.0 | 0.00 | 0.00 | 0.00 | 34 | 1006.3 |
| 20260503202905 | 65 | 119 | 13.0 | 27.0 | 0.00 | 0.00 | 0.00 | 32 | 1006.3 |
| 20260503202806 | 67 | 108 | 17.0 | 27.0 | 0.00 | 0.00 | 0.00 | 29 | 1006.8 |
| 20260503202705 | 68 | 98 | 18.0 | 27.0 | 0.00 | 0.00 | 0.00 | 27 | 1006.1 |
| 20260503202605 | 69 | 91 | 17.0 | 27.0 | 0.00 | 0.00 | 0.00 | 26 | 1006.0 |
| 20260503202506 | 69 | 94 | 14.0 | 27.0 | 0.00 | 0.00 | 0.00 | 23 | 1005.9 |
| 20260503202405 | 71 | 96 | 11.0 | 27.0 | 0.00 | 0.00 | 0.00 | 21 | 1006.0 |
| 20260503202306 | 71 | 93 | 17.0 | 27.0 | 0.00 | 0.00 | 0.00 | 17 | 1006.3 |
| 20260503202205 | 72 | 136 | 3.0 | 9.0 | 0.00 | 0.00 | 0.00 | 12 | 1006.1 |
| 20260503202105 | 72 | 122 | 3.0 | 9.0 | 0.00 | 0.00 | 0.00 | 12 | 1005.9 |
| 20260503202005 | 72 | 95 | 4.0 | 9.0 | 0.00 | 0.00 | 0.00 | 12 | 1005.8 |
| 20260503201905 | 72 | 95 | 4.0 | 9.0 | 0.00 | 0.00 | 0.00 | 12 | 1005.7 |
| 20260503201806 | 72 | 85 | 4.0 | 9.0 | 0.00 | 0.00 | 0.00 | 12 | 1005.8 |
| 20260503201705 | 72 | 84 | 3.0 | 9.0 | 0.00 | 0.00 | 0.00 | 12 | 1005.8 |
| 20260503201606 | 72 | 86 | 2.0 | 9.0 | 0.00 | 0.00 | 0.00 | 12 | 1005.7 |
| 20260503201405 | 72 | 94 | 2.0 | 9.0 | 0.00 | 0.00 | 0.00 | 12 | 1005.7 |
| 20260503201306 | 72 | 109 | 3.0 | 9.0 | 0.00 | 0.00 | 0.00 | 12 | 1005.7 |
| 20260503201205 | 72 | 125 | 3.0 | 10.0 | 0.00 | 0.00 | 0.00 | 12 | 1005.7 |
| 20260503201106 | 72 | 128 | 2.0 | 10.0 | 0.00 | 0.00 | 0.00 | 12 | 1005.6 |
| 20260503201005 | 73 | 139 | 3.0 | 10.0 | 0.00 | 0.00 | 0.00 | 11 | 1005.6 |
| 20260503200905 | 73 | 141 | 4.0 | 10.0 | 0.00 | 0.00 | 0.00 | 11 | 1005.6 |
| 20260503200805 | 73 | 151 | 6.0 | 10.0 | 0.00 | 0.00 | 0.00 | 10 | 1005.9 |
| 20260503200705 | 73 | 161 | 2.0 | 10.0 | 0.00 | 0.00 | 0.00 | 12 | 1005.6 |
| 20260503200605 | 73 | 161 | 2.0 | 10.0 | 0.00 | 0.00 | 0.00 | 12 | 1005.6 |
| 20260503200506 | 73 | 156 | 2.0 | 10.0 | 0.00 | 0.00 | 0.00 | 12 | 1005.6 |
| 20260503200405 | 73 | 153 | 2.0 | 10.0 | 0.00 | 0.00 | 0.00 | 12 | 1005.6 |
| 20260503200306 | 73 | 139 | 2.0 | 10.0 | 0.00 | 0.00 | 0.00 | 12 | 1005.6 |
| 20260503200205 | 73 | 114 | 4.0 | 10.0 | 0.00 | 0.00 | 0.00 | 12 | 1005.6 |
| 20260503200106 | 73 | 90 | 2.0 | 10.0 | 0.00 | 0.00 | 0.00 | 14 | 1005.8 |
| 20260503195905 | 73 | 80 | 1.0 | 11.0 | 0.00 | 0.00 | 0.00 | 13 | 1005.6 |
| 20260503195806 | 73 | 80 | 1.0 | 11.0 | 0.00 | 0.00 | 0.00 | 13 | 1005.6 |
| 20260503195705 | 73 | 79 | 1.0 | 11.0 | 0.00 | 0.00 | 0.00 | 13 | 1005.6 |
| 20260503195605 | 73 | 80 | 2.0 | 11.0 | 0.00 | 0.00 | 0.00 | 13 | 1005.7 |
| 20260503195506 | 73 | 71 | 1.0 | 11.0 | 0.00 | 0.00 | 0.00 | 13 | 1005.7 |
| 20260503195405 | 73 | 0 | 0.0 | 11.0 | 0.00 | 0.00 | 0.00 | 12 | 1005.7 |
| 20260503195305 | 73 | 69 | 5.0 | 11.0 | 0.00 | 0.00 | 0.00 | 12 | 1005.8 |
| 20260503195206 | 74 | 78 | 6.0 | 11.0 | 0.00 | 0.00 | 0.00 | 12 | 1005.8 |
| 20260503195105 | 74 | 90 | 8.0 | 11.0 | 0.00 | 0.00 | 0.00 | 12 | 1005.9 |
| 20260503195006 | 74 | 100 | 8.0 | 11.0 | 0.00 | 0.00 | 0.00 | 12 | 1005.7 |
| 20260503194905 | 74 | 104 | 8.0 | 11.0 | 0.00 | 0.00 | 0.00 | 12 | 1005.9 |
| 20260503194805 | 74 | 303 | 5.0 | 8.0 | 0.00 | 0.00 | 0.00 | 13 | 1005.9 |
| 20260503194705 | 73 | 292 | 2.0 | 7.0 | 0.00 | 0.00 | 0.00 | 16 | 1005.9 |
| 20260503194605 | 73 | 321 | 4.0 | 8.0 | 0.00 | 0.00 | 0.00 | 16 | 1005.9 |
| 20260503194506 | 73 | 279 | 4.0 | 8.0 | 0.00 | 0.00 | 0.00 | 15 | 1005.9 |
| 20260503194305 | 73 | 114 | 3.0 | 11.0 | 0.00 | 0.00 | 0.00 | 16 | 1005.9 |
| 20260503194106 | 72 | 92 | 2.0 | 12.0 | 0.00 | 0.00 | 0.00 | 16 | 1005.9 |
| 20260503193906 | 72 | 96 | 2.0 | 12.0 | 0.00 | 0.00 | 0.00 | 16 | 1005.8 |
| 20260503193805 | 72 | 94 | 2.0 | 12.0 | 0.00 | 0.00 | 0.00 | 16 | 1005.9 |
| 20260503193706 | 72 | 96 | 4.0 | 12.0 | 0.00 | 0.00 | 0.00 | 16 | 1005.9 |
| 20260503193605 | 72 | 97 | 4.0 | 12.0 | 0.00 | 0.00 | 0.00 | 15 | 1005.8 |
| 20260503193506 | 72 | 90 | 4.0 | 12.0 | 0.00 | 0.00 | 0.00 | 14 | 1006.0 |
| 20260503193405 | 72 | 91 | 4.0 | 12.0 | 0.00 | 0.00 | 0.00 | 15 | 1005.9 |
| 20260503193005 | 72 | 75 | 2.0 | 12.0 | 0.00 | 0.00 | 0.00 | 14 | 1006.3 |
| 20260503192905 | 72 | 71 | 3.0 | 12.0 | 0.00 | 0.00 | 0.00 | 14 | 1006.2 |
| 20260503192806 | 72 | 77 | 8.0 | 12.0 | 0.00 | 0.00 | 0.00 | 14 | 1006.3 |
| 20260503192706 | 72 | 76 | 8.0 | 12.0 | 0.00 | 0.00 | 0.00 | 16 | 1006.2 |
| 20260503192605 | 72 | 79 | 5.0 | 11.0 | 0.00 | 0.00 | 0.00 | 16 | 1006.4 |
| 20260503192405 | 72 | 91 | 4.0 | 9.0 | 0.00 | 0.00 | 0.00 | 16 | 1006.4 |
| 20260503192105 | 72 | 153 | 4.0 | 9.0 | 0.00 | 0.00 | 0.00 | 18 | 1006.4 |
| 20260503192006 | 71 | 135 | 4.0 | 8.0 | 0.00 | 0.00 | 0.00 | 18 | 1006.4 |
| 20260503191905 | 71 | 136 | 5.0 | 8.0 | 0.00 | 0.00 | 0.00 | 18 | 1006.4 |
| 20260503191806 | 71 | 194 | 2.0 | 8.0 | 0.00 | 0.00 | 0.00 | 18 | 1006.5 |
| 20260503191705 | 71 | 219 | 1.0 | 8.0 | 0.00 | 0.00 | 0.00 | 18 | 1006.4 |
| 20260503191606 | 71 | 270 | 2.0 | 8.0 | 0.00 | 0.00 | 0.00 | 18 | 1006.5 |
| 20260503191505 | 71 | 286 | 2.0 | 8.0 | 0.00 | 0.00 | 0.00 | 19 | 1006.5 |
| 20260503191405 | 71 | 0 | 0.0 | 8.0 | 0.00 | 0.00 | 0.00 | 19 | 1006.6 |
| 20260503191306 | 71 | 0 | 0.0 | 8.0 | 0.00 | 0.00 | 0.00 | 19 | 1006.4 |
| 20260503191205 | 70 | 310 | 3.0 | 8.0 | 0.00 | 0.00 | 0.00 | 19 | 1006.5 |
| 20260503191106 | 70 | 306 | 2.0 | 8.0 | 0.00 | 0.00 | 0.00 | 19 | 1006.5 |
| 20260503191005 | 70 | 296 | 4.0 | 8.0 | 0.00 | 0.00 | 0.00 | 19 | 1006.5 |
| 20260503190805 | 70 | 278 | 2.0 | 4.0 | 0.00 | 0.00 | 0.00 | 21 | 1006.5 |
| 20260503190706 | 70 | 284 | 2.0 | 4.0 | 0.00 | 0.00 | 0.00 | 21 | 1006.6 |
| 20260503190605 | 70 | 289 | 2.0 | 4.0 | 0.00 | 0.00 | 0.00 | 21 | 1006.6 |
| 20260503190505 | 70 | 310 | 2.0 | 9.0 | 0.00 | 0.00 | 0.00 | 21 | 1006.6 |
| 20260503190406 | 70 | 341 | 2.0 | 10.0 | 0.00 | 0.00 | 0.00 | 21 | 1006.6 |
| 20260503190305 | 70 | 348 | 2.0 | 10.0 | 0.00 | 0.00 | 0.00 | 21 | 1006.7 |
| 20260503190206 | 70 | 349 | 1.0 | 10.0 | 0.00 | 0.00 | 0.00 | 21 | 1006.7 |
| 20260503190005 | 70 | 0 | 0.0 | 10.0 | 0.00 | 0.00 | 0.00 | 21 | 1006.6 |
| 20260503185905 | 70 | 347 | 2.0 | 10.0 | 0.00 | 0.00 | 0.00 | 21 | 1006.7 |
| 20260503185805 | 70 | 352 | 2.0 | 10.0 | 0.00 | 0.00 | 0.00 | 21 | 1006.8 |
| 20260503185705 | 70 | 354 | 2.0 | 10.0 | 0.00 | 0.00 | 0.00 | 21 | 1006.7 |
| 20260503185605 | 70 | 358 | 5.0 | 10.0 | 0.00 | 0.00 | 0.00 | 21 | 1006.8 |
| 20260503185505 | 70 | 358 | 4.0 | 10.0 | 0.00 | 0.00 | 0.00 | 22 | 1006.7 |
| 20260503185406 | 70 | 344 | 4.0 | 7.0 | 0.00 | 0.00 | 0.00 | 22 | 1006.8 |
| 20260503185305 | 70 | 336 | 3.0 | 7.0 | 0.00 | 0.00 | 0.00 | 22 | 1006.8 |
| 20260503185206 | 70 | 336 | 3.0 | 4.0 | 0.00 | 0.00 | 0.00 | 23 | 1006.8 |
| 20260503185105 | 70 | 326 | 2.0 | 5.0 | 0.00 | 0.00 | 0.00 | 23 | 1006.9 |
| 20260503185006 | 69 | 322 | 2.0 | 5.0 | 0.00 | 0.00 | 0.00 | 23 | 1006.9 |
| 20260503184905 | 69 | 333 | 2.0 | 7.0 | 0.00 | 0.00 | 0.00 | 23 | 1006.9 |
| 20260503184806 | 69 | 337 | 2.0 | 7.0 | 0.00 | 0.00 | 0.00 | 23 | 1006.8 |
| 20260503184705 | 69 | 337 | 2.0 | 7.0 | 0.00 | 0.00 | 0.00 | 23 | 1006.9 |
| 20260503184605 | 69 | 332 | 2.0 | 7.0 | 0.00 | 0.00 | 0.00 | 23 | 1006.8 |
| 20260503184506 | 69 | 336 | 2.0 | 8.0 | 0.00 | 0.00 | 0.00 | 23 | 1006.9 |
| 20260503184405 | 69 | 337 | 1.0 | 8.0 | 0.00 | 0.00 | 0.00 | 23 | 1006.9 |
| 20260503184305 | 69 | 343 | 2.0 | 8.0 | 0.00 | 0.00 | 0.00 | 23 | 1006.9 |
| 20260503184206 | 69 | 347 | 2.0 | 8.0 | 0.00 | 0.00 | 0.00 | 23 | 1006.9 |
| 20260503184105 | 69 | 353 | 3.0 | 8.0 | 0.00 | 0.00 | 0.00 | 23 | 1007.0 |
| 20260503183806 | 69 | 343 | 3.0 | 8.0 | 0.00 | 0.00 | 0.00 | 23 | 1007.1 |
| 20260503183705 | 69 | 339 | 2.0 | 8.0 | 0.00 | 0.00 | 0.00 | 22 | 1007.1 |
| 20260503183606 | 69 | 342 | 3.0 | 8.0 | 0.00 | 0.00 | 0.00 | 23 | 1007.1 |
| 20260503183505 | 69 | 337 | 4.0 | 8.0 | 0.00 | 0.00 | 0.00 | 23 | 1007.2 |
| 20260503183405 | 69 | 332 | 4.0 | 8.0 | 0.00 | 0.00 | 0.00 | 23 | 1007.2 |
| 20260503183306 | 69 | 330 | 6.0 | 8.0 | 0.00 | 0.00 | 0.00 | 23 | 1007.1 |
| 20260503183206 | 69 | 333 | 3.0 | 6.0 | 0.00 | 0.00 | 0.00 | 24 | 1007.2 |
| 20260503183105 | 69 | 327 | 3.0 | 6.0 | 0.00 | 0.00 | 0.00 | 24 | 1007.2 |
| 20260503183006 | 69 | 326 | 3.0 | 6.0 | 0.00 | 0.00 | 0.00 | 24 | 1007.2 |
| 20260503182906 | 69 | 345 | 4.0 | 6.0 | 0.00 | 0.00 | 0.00 | 23 | 1007.2 |
| 20260503182806 | 69 | 0 | 0.0 | 8.0 | 0.00 | 0.00 | 0.00 | 24 | 1007.2 |
| 20260503182705 | 69 | 16 | 1.0 | 8.0 | 0.00 | 0.00 | 0.00 | 24 | 1007.2 |
| 20260503182506 | 69 | 11 | 3.0 | 8.0 | 0.00 | 0.00 | 0.00 | 23 | 1007.4 |
| 20260503182405 | 69 | 13 | 1.0 | 8.0 | 0.00 | 0.00 | 0.00 | 24 | 1007.4 |
| 20260503182306 | 69 | 10 | 2.0 | 8.0 | 0.00 | 0.00 | 0.00 | 24 | 1007.4 |
| 20260503182206 | 69 | 3 | 3.0 | 8.0 | 0.00 | 0.00 | 0.00 | 23 | 1007.4 |
| 20260503182105 | 69 | 352 | 1.0 | 8.0 | 0.00 | 0.00 | 0.00 | 24 | 1007.4 |
| 20260503182006 | 69 | 337 | 2.0 | 8.0 | 0.00 | 0.00 | 0.00 | 24 | 1007.4 |
| 20260503181906 | 69 | 337 | 3.0 | 8.0 | 0.00 | 0.00 | 0.00 | 23 | 1007.3 |
| 20260503181805 | 69 | 334 | 6.0 | 8.0 | 0.00 | 0.00 | 0.00 | 23 | 1007.4 |
| 20260503181706 | 69 | 328 | 5.0 | 8.0 | 0.00 | 0.00 | 0.00 | 23 | 1007.3 |
| 20260503181605 | 69 | 330 | 3.0 | 8.0 | 0.00 | 0.00 | 0.00 | 23 | 1007.4 |
| 20260503181507 | 69 | 336 | 3.0 | 8.0 | 0.00 | 0.00 | 0.00 | 23 | 1007.4 |
| 20260503181405 | 69 | 342 | 3.0 | 8.0 | 0.00 | 0.00 | 0.00 | 23 | 1007.5 |
| 20260503181306 | 69 | 340 | 3.0 | 8.0 | 0.00 | 0.00 | 0.00 | 24 | 1007.4 |
| 20260503181205 | 69 | 331 | 5.0 | 8.0 | 0.00 | 0.00 | 0.00 | 24 | 1007.4 |
| 20260503181005 | 69 | 339 | 3.0 | 8.0 | 0.00 | 0.00 | 0.00 | 25 | 1007.5 |
| 20260503180905 | 68 | 337 | 4.0 | 8.0 | 0.00 | 0.00 | 0.00 | 26 | 1007.5 |
| 20260503180806 | 68 | 327 | 5.0 | 8.0 | 0.00 | 0.00 | 0.00 | 26 | 1007.5 |
| 20260503180705 | 68 | 327 | 2.0 | 8.0 | 0.00 | 0.00 | 0.00 | 26 | 1007.5 |
| 20260503180606 | 68 | 332 | 3.0 | 8.0 | 0.00 | 0.00 | 0.00 | 26 | 1007.5 |
| 20260503180505 | 68 | 334 | 3.0 | 8.0 | 0.00 | 0.00 | 0.00 | 27 | 1007.4 |
| 20260503180405 | 68 | 340 | 2.0 | 8.0 | 0.00 | 0.00 | 0.00 | 27 | 1007.5 |
| 20260503180305 | 68 | 347 | 4.0 | 8.0 | 0.00 | 0.00 | 0.00 | 26 | 1007.5 |
| 20260503180206 | 68 | 357 | 4.0 | 8.0 | 0.00 | 0.00 | 0.00 | 26 | 1007.5 |
| 20260503180106 | 68 | 357 | 2.0 | 8.0 | 0.00 | 0.00 | 0.00 | 26 | 1007.6 |
| 20260503180005 | 68 | 11 | 2.0 | 8.0 | 0.00 | 0.00 | 0.00 | 26 | 1007.5 |
| 20260503175905 | 68 | 11 | 4.0 | 8.0 | 0.00 | 0.00 | 0.00 | 26 | 1007.6 |
| 20260503175805 | 68 | 17 | 4.0 | 8.0 | 0.00 | 0.00 | 0.00 | 26 | 1007.7 |
| 20260503175706 | 68 | 19 | 4.0 | 8.0 | 0.00 | 0.00 | 0.00 | 27 | 1007.6 |
| 20260503175605 | 68 | 18 | 4.0 | 8.0 | 0.00 | 0.00 | 0.00 | 27 | 1007.6 |
| 20260503175505 | 68 | 8 | 4.0 | 8.0 | 0.00 | 0.00 | 0.00 | 28 | 1007.6 |
| 20260503175405 | 68 | 351 | 1.0 | 8.0 | 0.00 | 0.00 | 0.00 | 28 | 1007.7 |
| 20260503175305 | 68 | 348 | 2.0 | 8.0 | 0.00 | 0.00 | 0.00 | 28 | 1007.7 |
| 20260503175206 | 67 | 348 | 2.0 | 7.0 | 0.00 | 0.00 | 0.00 | 29 | 1007.7 |
| 20260503175105 | 67 | 353 | 3.0 | 7.0 | 0.00 | 0.00 | 0.00 | 28 | 1007.8 |
| 20260503175005 | 67 | 342 | 2.0 | 7.0 | 0.00 | 0.00 | 0.00 | 29 | 1007.6 |
| 20260503174805 | 67 | 333 | 1.0 | 7.0 | 0.00 | 0.00 | 0.00 | 30 | 1007.7 |
| 20260503174706 | 67 | 334 | 2.0 | 7.0 | 0.00 | 0.00 | 0.00 | 30 | 1007.7 |
| 20260503174505 | 67 | 338 | 2.0 | 7.0 | 0.00 | 0.00 | 0.00 | 30 | 1007.9 |
| 20260503174406 | 67 | 335 | 2.0 | 7.0 | 0.00 | 0.00 | 0.00 | 28 | 1007.9 |
| 20260503174205 | 67 | 312 | 4.0 | 7.0 | 0.00 | 0.00 | 0.00 | 30 | 1007.9 |
| 20260503174106 | 67 | 309 | 2.0 | 6.0 | 0.00 | 0.00 | 0.00 | 33 | 1007.9 |
| 20260503174005 | 66 | 298 | 2.0 | 6.0 | 0.00 | 0.00 | 0.00 | 34 | 1007.9 |
| 20260503173906 | 66 | 296 | 1.0 | 6.0 | 0.00 | 0.00 | 0.00 | 34 | 1007.8 |
| 20260503173805 | 66 | 295 | 1.0 | 6.0 | 0.00 | 0.00 | 0.00 | 34 | 1007.9 |
| 20260503173605 | 66 | 284 | 3.0 | 6.0 | 0.00 | 0.00 | 0.00 | 34 | 1007.9 |
| 20260503173506 | 66 | 284 | 4.0 | 6.0 | 0.00 | 0.00 | 0.00 | 35 | 1007.9 |
| 20260503173405 | 66 | 279 | 4.0 | 6.0 | 0.00 | 0.00 | 0.00 | 35 | 1007.9 |
| 20260503173306 | 66 | 281 | 2.0 | 6.0 | 0.00 | 0.00 | 0.00 | 35 | 1007.9 |
| 20260503173205 | 66 | 293 | 1.0 | 6.0 | 0.00 | 0.00 | 0.00 | 34 | 1007.9 |
| 20260503173106 | 66 | 291 | 4.0 | 6.0 | 0.00 | 0.00 | 0.00 | 34 | 1007.8 |
| 20260503173005 | 66 | 290 | 4.0 | 6.0 | 0.00 | 0.00 | 0.00 | 34 | 1007.9 |
| 20260503172906 | 66 | 292 | 4.0 | 5.0 | 0.00 | 0.00 | 0.00 | 34 | 1007.8 |
| 20260503172706 | 66 | 309 | 2.0 | 5.0 | 0.00 | 0.00 | 0.00 | 36 | 1007.9 |
| 20260503172605 | 66 | 309 | 2.0 | 5.0 | 0.00 | 0.00 | 0.00 | 37 | 1008.0 |
| 20260503172507 | 65 | 306 | 1.0 | 5.0 | 0.00 | 0.00 | 0.00 | 37 | 1008.0 |
| 20260503172405 | 65 | 306 | 1.0 | 5.0 | 0.00 | 0.00 | 0.00 | 37 | 1008.0 |
| 20260503172305 | 65 | 304 | 1.0 | 5.0 | 0.00 | 0.00 | 0.00 | 36 | 1008.0 |
| 20260503172205 | 65 | 298 | 2.0 | 5.0 | 0.00 | 0.00 | 0.00 | 36 | 1008.0 |
| 20260503172105 | 65 | 297 | 1.0 | 5.0 | 0.00 | 0.00 | 0.00 | 36 | 1007.9 |
| 20260503172006 | 65 | 300 | 3.0 | 6.0 | 0.00 | 0.00 | 0.00 | 36 | 1008.1 |
| 20260503171905 | 65 | 303 | 2.0 | 6.0 | 0.00 | 0.00 | 0.00 | 37 | 1007.9 |
| 20260503171805 | 65 | 306 | 2.0 | 6.0 | 0.00 | 0.00 | 0.00 | 37 | 1007.8 |
| 20260503171706 | 65 | 309 | 2.0 | 6.0 | 0.00 | 0.00 | 0.00 | 37 | 1007.9 |
| 20260503171605 | 65 | 314 | 3.0 | 6.0 | 0.00 | 0.00 | 0.00 | 36 | 1008.0 |
| 20260503171406 | 65 | 312 | 3.0 | 6.0 | 0.00 | 0.00 | 0.00 | 36 | 1007.9 |
| 20260503171206 | 65 | 313 | 3.0 | 6.0 | 0.00 | 0.00 | 0.00 | 36 | 1008.0 |
| 20260503171105 | 65 | 324 | 3.0 | 6.0 | 0.00 | 0.00 | 0.00 | 35 | 1007.9 |
| 20260503170905 | 65 | 26 | 1.0 | 4.0 | 0.00 | 0.00 | 0.00 | 38 | 1007.9 |
| 20260503170805 | 65 | 10 | 1.0 | 3.0 | 0.00 | 0.00 | 0.00 | 39 | 1007.9 |
| 20260503170706 | 64 | 27 | 1.0 | 4.0 | 0.00 | 0.00 | 0.00 | 40 | 1007.9 |
| 20260503170506 | 64 | 0 | 0.0 | 4.0 | 0.00 | 0.00 | 0.00 | 41 | 1008.1 |
| 20260503170405 | 64 | 16 | 1.0 | 4.0 | 0.00 | 0.00 | 0.00 | 41 | 1008.1 |
| 20260503170306 | 64 | 32 | 1.0 | 4.0 | 0.00 | 0.00 | 0.00 | 41 | 1008.1 |
| 20260503170105 | 64 | 9 | 2.0 | 4.0 | 0.00 | 0.00 | 0.00 | 42 | 1008.1 |
| 20260503160205 | 57 | 0 | 0.0 | 2.0 | 0.00 | 0.00 | 0.00 | 57 | 1008.7 |
| 20260503160105 | 57 | 0 | 0.0 | 2.0 | 0.00 | 0.00 | 0.00 | 58 | 1008.8 |
| 20260503151005 | 52 | 0 | 0.0 | 2.0 | 0.00 | 0.00 | 0.00 | 69 | 1009.1 |
| 20260503150905 | 52 | 0 | 0.0 | 2.0 | 0.00 | 0.00 | 0.00 | 69 | 1009.0 |
| 20260503150806 | 51 | 115 | 1.0 | 2.0 | 0.00 | 0.00 | 0.00 | 70 | 1009.0 |
| 20260503150605 | 51 | 0 | 0.0 | 2.0 | 0.00 | 0.00 | 0.00 | 72 | 1009.0 |
| 20260503150405 | 51 | 0 | 0.0 | 2.0 | 0.00 | 0.00 | 0.00 | 72 | 1008.9 |
| 20260503150305 | 51 | 0 | 0.0 | 2.0 | 0.00 | 0.00 | 0.00 | 72 | 1009.0 |
| 20260503150205 | 51 | 0 | 0.0 | 2.0 | 0.00 | 0.00 | 0.00 | 72 | 1009.0 |
| 20260503140206 | 44 | 106 | 1.0 | 4.0 | 0.00 | 0.00 | 0.00 | 82 | 1009.1 |
| 20260503140105 | 44 | 101 | 1.0 | 4.0 | 0.00 | 0.00 | 0.00 | 82 | 1009.1 |
| 20260503131405 | 40 | 0 | 0.0 | 1.0 | 0.00 | 0.00 | 0.00 | 80 | 1008.9 |
| 20260503131304 | 40 | 0 | 0.0 | 1.0 | 0.00 | 0.00 | 0.00 | 79 | 1008.9 |
| 20260503131205 | 40 | 0 | 0.0 | 1.0 | 0.00 | 0.00 | 0.00 | 79 | 1008.9 |
| 20260503131105 | 40 | 0 | 0.0 | 1.0 | 0.00 | 0.00 | 0.00 | 79 | 1008.9 |
| 20260503131004 | 40 | 0 | 0.0 | 1.0 | 0.00 | 0.00 | 0.00 | 79 | 1008.9 |
| 20260503130705 | 40 | 0 | 0.0 | 1.0 | 0.00 | 0.00 | 0.00 | 78 | 1008.9 |
| 20260503130605 | 40 | 0 | 0.0 | 1.0 | 0.00 | 0.00 | 0.00 | 78 | 1008.9 |
| 20260503130505 | 40 | 0 | 0.0 | 1.0 | 0.00 | 0.00 | 0.00 | 78 | 1008.9 |
| 20260503130405 | 40 | 0 | 0.0 | 1.0 | 0.00 | 0.00 | 0.00 | 78 | 1008.9 |
| 20260503130305 | 40 | 0 | 0.0 | 1.0 | 0.00 | 0.00 | 0.00 | 78 | 1009.0 |
| 20260503130205 | 40 | 0 | 0.0 | 1.0 | 0.00 | 0.00 | 0.00 | 78 | 1008.9 |
| 20260503130105 | 40 | 0 | 0.0 | 1.0 | 0.00 | 0.00 | 0.00 | 78 | 1008.9 |
| 20260503120205 | 43 | 0 | 0.0 | 2.0 | 0.00 | 0.00 | 0.00 | 78 | 1008.9 |
| 20260503120105 | 43 | 0 | 0.0 | 2.0 | 0.00 | 0.00 | 0.00 | 78 | 1009.0 |
| 20260503110806 | 46 | 0 | 0.0 | 1.0 | 0.00 | 0.00 | 0.00 | 73 | 1009.2 |
| 20260503110705 | 47 | 0 | 0.0 | 1.0 | 0.00 | 0.00 | 0.00 | 71 | 1009.2 |
| 20260503110605 | 47 | 0 | 0.0 | 1.0 | 0.00 | 0.00 | 0.00 | 71 | 1009.2 |
| 20260503110505 | 47 | 0 | 0.0 | 1.0 | 0.00 | 0.00 | 0.00 | 71 | 1009.2 |
| 20260503110405 | 47 | 0 | 0.0 | 1.0 | 0.00 | 0.00 | 0.00 | 71 | 1009.2 |
| 20260503110205 | 47 | 0 | 0.0 | 1.0 | 0.00 | 0.00 | 0.00 | 71 | 1009.2 |
| 20260503100205 | 49 | 90 | 4.0 | 5.0 | 0.00 | 0.00 | 0.00 | 74 | 1009.2 |
| 20260503100105 | 49 | 90 | 4.0 | 5.0 | 0.00 | 0.00 | 0.00 | 74 | 1009.1 |
| 20260503090505 | 49 | 84 | 1.0 | 3.0 | 0.00 | 0.00 | 0.00 | 71 | 1009.4 |
| 20260503090405 | 49 | 86 | 1.0 | 3.0 | 0.00 | 0.00 | 0.00 | 71 | 1009.4 |
| 20260503090205 | 49 | 86 | 1.0 | 3.0 | 0.00 | 0.00 | 0.00 | 71 | 1009.4 |
| 20260503090105 | 49 | 89 | 1.0 | 3.0 | 0.00 | 0.00 | 0.00 | 71 | 1009.5 |
| 20260503081504 | 50 | 0 | 0.0 | 2.0 | 0.00 | 0.00 | 0.00 | 67 | 1009.9 |
| 20260503081405 | 50 | 0 | 0.0 | 2.0 | 0.00 | 0.00 | 0.00 | 67 | 1009.8 |
| 20260503081305 | 50 | 0 | 0.0 | 2.0 | 0.00 | 0.00 | 0.00 | 67 | 1009.8 |
| 20260503081205 | 50 | 135 | 1.0 | 2.0 | 0.00 | 0.00 | 0.00 | 68 | 1009.7 |
| 20260503081105 | 50 | 0 | 0.0 | 2.0 | 0.00 | 0.00 | 0.00 | 68 | 1009.9 |
| 20260503081004 | 50 | 0 | 0.0 | 2.0 | 0.00 | 0.00 | 0.00 | 67 | 1009.7 |
| 20260503080905 | 50 | 135 | 1.0 | 2.0 | 0.00 | 0.00 | 0.00 | 67 | 1009.9 |
| 20260503080804 | 50 | 0 | 0.0 | 1.0 | 0.00 | 0.00 | 0.00 | 67 | 1009.8 |
| 20260503080605 | 50 | 0 | 0.0 | 0.0 | 0.00 | 0.00 | 0.00 | 65 | 1009.9 |
| 20260503080504 | 50 | 0 | 0.0 | 0.0 | 0.00 | 0.00 | 0.00 | 65 | 1009.7 |
| 20260503080405 | 50 | 0 | 0.0 | 1.0 | 0.00 | 0.00 | 0.00 | 65 | 1009.9 |
| 20260503080305 | 50 | 0 | 0.0 | 2.0 | 0.00 | 0.00 | 0.00 | 65 | 1009.9 |
| 20260503080205 | 50 | 0 | 0.0 | 2.0 | 0.00 | 0.00 | 0.00 | 65 | 1009.9 |
| 20260503072904 | 53 | 0 | 0.0 | 1.0 | 0.00 | 0.00 | 0.00 | 59 | 1010.0 |
| 20260503072805 | 53 | 0 | 0.0 | 1.0 | 0.00 | 0.00 | 0.00 | 60 | 1010.0 |
| 20260503072705 | 53 | 0 | 0.0 | 1.0 | 0.00 | 0.00 | 0.00 | 60 | 1010.0 |
| 20260503072605 | 53 | 0 | 0.0 | 2.0 | 0.00 | 0.00 | 0.00 | 60 | 1010.0 |
| 20260503072505 | 53 | 0 | 0.0 | 2.0 | 0.00 | 0.00 | 0.00 | 60 | 1010.0 |
| 20260503072404 | 53 | 0 | 0.0 | 2.0 | 0.00 | 0.00 | 0.00 | 60 | 1010.1 |
| 20260503072306 | 53 | 0 | 0.0 | 2.0 | 0.00 | 0.00 | 0.00 | 60 | 1010.1 |
| 20260503072205 | 53 | 0 | 0.0 | 2.0 | 0.00 | 0.00 | 0.00 | 60 | 1010.0 |
| 20260503072104 | 53 | 0 | 0.0 | 2.0 | 0.00 | 0.00 | 0.00 | 60 | 1010.0 |
| 20260503071905 | 52 | 0 | 0.0 | 2.0 | 0.00 | 0.00 | 0.00 | 61 | 1010.2 |
| 20260503071805 | 52 | 0 | 0.0 | 2.0 | 0.00 | 0.00 | 0.00 | 61 | 1010.1 |
| 20260503071505 | 52 | 234 | 1.0 | 2.0 | 0.00 | 0.00 | 0.00 | 62 | 1010.1 |
| 20260503071405 | 52 | 0 | 0.0 | 2.0 | 0.00 | 0.00 | 0.00 | 62 | 1010.0 |
| 20260503071305 | 52 | 0 | 0.0 | 1.0 | 0.00 | 0.00 | 0.00 | 63 | 1010.1 |
| 20260503071205 | 52 | 0 | 0.0 | 1.0 | 0.00 | 0.00 | 0.00 | 63 | 1010.1 |
| 20260503071105 | 52 | 0 | 0.0 | 1.0 | 0.00 | 0.00 | 0.00 | 63 | 1010.1 |
| 20260503070905 | 52 | 0 | 0.0 | 0.0 | 0.00 | 0.00 | 0.00 | 63 | 1010.1 |
| 20260503070805 | 52 | 0 | 0.0 | 0.0 | 0.00 | 0.00 | 0.00 | 63 | 1010.0 |
| 20260503070705 | 52 | 0 | 0.0 | 0.0 | 0.00 | 0.00 | 0.00 | 63 | 1010.1 |
| 20260503070605 | 52 | 0 | 0.0 | 0.0 | 0.00 | 0.00 | 0.00 | 63 | 1010.1 |
| 20260503070505 | 52 | 0 | 0.0 | 0.0 | 0.00 | 0.00 | 0.00 | 63 | 1010.1 |
| 20260503070405 | 52 | 0 | 0.0 | 1.0 | 0.00 | 0.00 | 0.00 | 63 | 1010.1 |
| 20260503070305 | 52 | 0 | 0.0 | 2.0 | 0.00 | 0.00 | 0.00 | 63 | 1010.1 |
| 20260503070205 | 52 | 0 | 0.0 | 2.0 | 0.00 | 0.00 | 0.00 | 63 | 1010.1 |
| 20260503070104 | 52 | 0 | 0.0 | 2.0 | 0.00 | 0.00 | 0.00 | 63 | 1010.0 |
| 20260503060304 | 54 | 0 | 0.0 | 1.0 | 0.00 | 0.00 | 0.00 | 62 | 1010.2 |
| 20260503060205 | 54 | 0 | 0.0 | 1.0 | 0.00 | 0.00 | 0.00 | 62 | 1010.1 |
| 20260503055105 | 54 | 0 | 0.0 | 4.0 | 0.00 | 0.00 | 0.00 | 62 | 1010.1 |
| 20260503055004 | 54 | 0 | 0.0 | 4.0 | 0.00 | 0.00 | 0.00 | 62 | 1010.0 |
| 20260503054905 | 54 | 0 | 0.0 | 4.0 | 0.00 | 0.00 | 0.00 | 61 | 1010.1 |
| 20260503054804 | 54 | 0 | 0.0 | 4.0 | 0.00 | 0.00 | 0.00 | 62 | 1010.1 |
| 20260503054705 | 54 | 0 | 0.0 | 4.0 | 0.00 | 0.00 | 0.00 | 61 | 1010.0 |
| 20260503054605 | 54 | 0 | 0.0 | 4.0 | 0.00 | 0.00 | 0.00 | 61 | 1009.9 |
| 20260503054505 | 54 | 130 | 1.0 | 4.0 | 0.00 | 0.00 | 0.00 | 61 | 1010.0 |
| 20260503054405 | 54 | 0 | 0.0 | 4.0 | 0.00 | 0.00 | 0.00 | 61 | 1010.1 |
| 20260503054305 | 54 | 129 | 2.0 | 4.0 | 0.00 | 0.00 | 0.00 | 61 | 1010.1 |
| 20260503054205 | 54 | 123 | 2.0 | 4.0 | 0.00 | 0.00 | 0.00 | 61 | 1010.2 |
| 20260503054105 | 54 | 124 | 2.0 | 7.0 | 0.00 | 0.00 | 0.00 | 61 | 1010.3 |
| 20260503054005 | 54 | 112 | 2.0 | 8.0 | 0.00 | 0.00 | 0.00 | 61 | 1010.1 |
| 20260503053904 | 54 | 108 | 2.0 | 8.0 | 0.00 | 0.00 | 0.00 | 61 | 1010.2 |
| 20260503053805 | 54 | 105 | 2.0 | 8.0 | 0.00 | 0.00 | 0.00 | 61 | 1010.3 |
| 20260503053704 | 54 | 102 | 2.0 | 8.0 | 0.00 | 0.00 | 0.00 | 61 | 1010.2 |
| 20260503053606 | 54 | 0 | 0.0 | 8.0 | 0.00 | 0.00 | 0.00 | 62 | 1010.2 |
| 20260503053505 | 54 | 0 | 0.0 | 8.0 | 0.00 | 0.00 | 0.00 | 62 | 1010.2 |
| 20260503053405 | 54 | 94 | 1.0 | 10.0 | 0.00 | 0.00 | 0.00 | 62 | 1010.3 |
| 20260503053305 | 54 | 93 | 2.0 | 10.0 | 0.00 | 0.00 | 0.00 | 62 | 1010.3 |
| 20260503053205 | 54 | 93 | 4.0 | 10.0 | 0.00 | 0.00 | 0.00 | 63 | 1010.3 |
| 20260503053105 | 54 | 90 | 6.0 | 10.0 | 0.00 | 0.00 | 0.00 | 63 | 1010.3 |
| 20260503053004 | 54 | 90 | 4.0 | 10.0 | 0.00 | 0.00 | 0.00 | 63 | 1010.2 |
| 20260503052905 | 54 | 91 | 4.0 | 10.0 | 0.00 | 0.00 | 0.00 | 63 | 1010.3 |
| 20260503052805 | 54 | 92 | 4.0 | 10.0 | 0.00 | 0.00 | 0.00 | 62 | 1010.3 |
| 20260503052705 | 54 | 92 | 4.0 | 10.0 | 0.00 | 0.00 | 0.00 | 62 | 1010.2 |
| 20260503052605 | 53 | 94 | 6.0 | 10.0 | 0.00 | 0.00 | 0.00 | 62 | 1010.3 |
| 20260503052505 | 53 | 98 | 5.0 | 10.0 | 0.00 | 0.00 | 0.00 | 61 | 1010.1 |
| 20260503052405 | 53 | 104 | 4.0 | 7.0 | 0.00 | 0.00 | 0.00 | 60 | 1010.2 |
| 20260503052205 | 53 | 120 | 2.0 | 4.0 | 0.00 | 0.00 | 0.00 | 57 | 1010.3 |
| 20260503052105 | 53 | 131 | 2.0 | 4.0 | 0.00 | 0.00 | 0.00 | 56 | 1010.2 |
| 20260503052005 | 53 | 0 | 0.0 | 2.0 | 0.00 | 0.00 | 0.00 | 55 | 1010.2 |
| 20260503051905 | 53 | 0 | 0.0 | 2.0 | 0.00 | 0.00 | 0.00 | 55 | 1010.1 |
| 20260503051605 | 53 | 0 | 0.0 | 2.0 | 0.00 | 0.00 | 0.00 | 55 | 1010.0 |
| 20260503051405 | 53 | 0 | 0.0 | 1.0 | 0.00 | 0.00 | 0.00 | 56 | 1010.0 |
| 20260503051205 | 53 | 0 | 0.0 | 1.0 | 0.00 | 0.00 | 0.00 | 55 | 1009.9 |
| 20260503051105 | 53 | 0 | 0.0 | 1.0 | 0.00 | 0.00 | 0.00 | 54 | 1009.9 |
| 20260503051004 | 53 | 0 | 0.0 | 1.0 | 0.00 | 0.00 | 0.00 | 54 | 1009.9 |
| 20260503050905 | 53 | 0 | 0.0 | 1.0 | 0.00 | 0.00 | 0.00 | 53 | 1009.9 |
| 20260503050804 | 53 | 0 | 0.0 | 1.0 | 0.00 | 0.00 | 0.00 | 52 | 1009.8 |
| 20260503050604 | 54 | 0 | 0.0 | 1.0 | 0.00 | 0.00 | 0.00 | 51 | 1010.0 |
| 20260503050505 | 54 | 0 | 0.0 | 2.0 | 0.00 | 0.00 | 0.00 | 51 | 1010.0 |
| 20260503050405 | 54 | 0 | 0.0 | 3.0 | 0.00 | 0.00 | 0.00 | 51 | 1009.9 |
| 20260503050306 | 54 | 0 | 0.0 | 4.0 | 0.00 | 0.00 | 0.00 | 51 | 1009.9 |
| 20260503050105 | 54 | 0 | 0.0 | 4.0 | 0.00 | 0.00 | 0.00 | 51 | 1009.9 |
| 20260503050006 | 54 | 0 | 0.0 | 4.0 | 0.00 | 0.00 | 0.00 | 51 | 1009.9 |
| 20260503045905 | 54 | 0 | 0.0 | 4.0 | 0.00 | 0.00 | 0.00 | 51 | 1009.9 |
| 20260503045805 | 54 | 0 | 0.0 | 4.0 | 0.00 | 0.00 | 0.00 | 50 | 1009.8 |
| 20260503045705 | 54 | 0 | 0.0 | 4.0 | 0.00 | 0.00 | 0.00 | 50 | 1009.9 |
| 20260503045604 | 54 | 0 | 0.0 | 4.0 | 0.00 | 0.00 | 0.00 | 50 | 1009.9 |
| 20260503045505 | 54 | 87 | 2.0 | 4.0 | 0.00 | 0.00 | 0.00 | 49 | 1009.9 |
| 20260503045405 | 54 | 88 | 2.0 | 4.0 | 0.00 | 0.00 | 0.00 | 49 | 1009.9 |
| 20260503045305 | 54 | 89 | 2.0 | 4.0 | 0.00 | 0.00 | 0.00 | 49 | 1009.9 |
| 20260503045204 | 55 | 102 | 2.0 | 4.0 | 0.00 | 0.00 | 0.00 | 49 | 1009.8 |
| 20260503045105 | 55 | 106 | 2.0 | 4.0 | 0.00 | 0.00 | 0.00 | 49 | 1009.8 |
| 20260503045005 | 55 | 122 | 2.0 | 4.0 | 0.00 | 0.00 | 0.00 | 49 | 1009.8 |
| 20260503044905 | 55 | 0 | 0.0 | 1.0 | 0.00 | 0.00 | 0.00 | 49 | 1009.8 |
| 20260503044705 | 55 | 0 | 0.0 | 1.0 | 0.00 | 0.00 | 0.00 | 49 | 1009.7 |
| 20260503044605 | 55 | 0 | 0.0 | 1.0 | 0.00 | 0.00 | 0.00 | 48 | 1009.8 |
| 20260503044505 | 55 | 0 | 0.0 | 1.0 | 0.00 | 0.00 | 0.00 | 48 | 1009.8 |
| 20260503044405 | 56 | 0 | 0.0 | 1.0 | 0.00 | 0.00 | 0.00 | 48 | 1009.7 |
| 20260503044304 | 56 | 0 | 0.0 | 1.0 | 0.00 | 0.00 | 0.00 | 48 | 1009.8 |
| 20260503044205 | 56 | 0 | 0.0 | 1.0 | 0.00 | 0.00 | 0.00 | 47 | 1009.7 |
| 20260503044104 | 56 | 0 | 0.0 | 1.0 | 0.00 | 0.00 | 0.00 | 47 | 1009.7 |
| 20260503043905 | 56 | 0 | 0.0 | 2.0 | 0.00 | 0.00 | 0.00 | 47 | 1009.6 |
| 20260503043805 | 56 | 0 | 0.0 | 2.0 | 0.00 | 0.00 | 0.00 | 47 | 1009.6 |
| 20260503043605 | 56 | 0 | 0.0 | 2.0 | 0.00 | 0.00 | 0.00 | 46 | 1009.6 |
| 20260503043504 | 56 | 0 | 0.0 | 2.0 | 0.00 | 0.00 | 0.00 | 46 | 1009.5 |
| 20260503043305 | 56 | 0 | 0.0 | 2.0 | 0.00 | 0.00 | 0.00 | 46 | 1009.6 |
| 20260503043104 | 56 | 0 | 0.0 | 2.0 | 0.00 | 0.00 | 0.00 | 46 | 1009.5 |
| 20260503043005 | 56 | 0 | 0.0 | 2.0 | 0.00 | 0.00 | 0.00 | 45 | 1009.5 |
| 20260503042905 | 56 | 0 | 0.0 | 1.0 | 0.00 | 0.00 | 0.00 | 44 | 1009.5 |
| 20260503042605 | 57 | 0 | 0.0 | 2.0 | 0.00 | 0.00 | 0.00 | 44 | 1009.5 |
| 20260503042505 | 57 | 0 | 0.0 | 2.0 | 0.00 | 0.00 | 0.00 | 44 | 1009.6 |
| 20260503042405 | 57 | 0 | 0.0 | 2.0 | 0.00 | 0.00 | 0.00 | 43 | 1009.5 |
| 20260503042305 | 57 | 0 | 0.0 | 2.0 | 0.00 | 0.00 | 0.00 | 43 | 1009.5 |
| 20260503042204 | 57 | 0 | 0.0 | 2.0 | 0.00 | 0.00 | 0.00 | 43 | 1009.5 |
| 20260503042105 | 57 | 0 | 0.0 | 2.0 | 0.00 | 0.00 | 0.00 | 43 | 1009.5 |
| 20260503042004 | 57 | 0 | 0.0 | 2.0 | 0.00 | 0.00 | 0.00 | 43 | 1009.5 |
| 20260503041905 | 57 | 0 | 0.0 | 2.0 | 0.00 | 0.00 | 0.00 | 43 | 1009.5 |
| 20260503041805 | 57 | 112 | 1.0 | 2.0 | 0.00 | 0.00 | 0.00 | 43 | 1009.5 |
| 20260503041705 | 57 | 0 | 0.0 | 2.0 | 0.00 | 0.00 | 0.00 | 43 | 1009.5 |
| 20260503041605 | 57 | 0 | 0.0 | 2.0 | 0.00 | 0.00 | 0.00 | 43 | 1009.5 |
| 20260503041505 | 57 | 0 | 0.0 | 2.0 | 0.00 | 0.00 | 0.00 | 44 | 1009.5 |
| 20260503041405 | 57 | 0 | 0.0 | 2.0 | 0.00 | 0.00 | 0.00 | 43 | 1009.4 |
| 20260503041305 | 57 | 0 | 0.0 | 2.0 | 0.00 | 0.00 | 0.00 | 44 | 1009.4 |
| 20260503041204 | 57 | 0 | 0.0 | 2.0 | 0.00 | 0.00 | 0.00 | 44 | 1009.5 |
| 20260503041105 | 57 | 0 | 0.0 | 1.0 | 0.00 | 0.00 | 0.00 | 44 | 1009.5 |
| 20260503040905 | 57 | 0 | 0.0 | 1.0 | 0.00 | 0.00 | 0.00 | 44 | 1009.5 |
| 20260503040805 | 57 | 0 | 0.0 | 1.0 | 0.00 | 0.00 | 0.00 | 44 | 1009.5 |
| 20260503040705 | 57 | 0 | 0.0 | 0.0 | 0.00 | 0.00 | 0.00 | 43 | 1009.5 |
| 20260503040604 | 57 | 0 | 0.0 | 0.0 | 0.00 | 0.00 | 0.00 | 43 | 1009.4 |
| 20260503040505 | 57 | 0 | 0.0 | 0.0 | 0.00 | 0.00 | 0.00 | 43 | 1009.5 |
| 20260503040405 | 57 | 0 | 0.0 | 1.0 | 0.00 | 0.00 | 0.00 | 43 | 1009.4 |
| 20260503040305 | 57 | 0 | 0.0 | 1.0 | 0.00 | 0.00 | 0.00 | 43 | 1009.4 |
| 20260503040104 | 57 | 0 | 0.0 | 2.0 | 0.00 | 0.00 | 0.00 | 43 | 1009.4 |
| 20260503035905 | 57 | 0 | 0.0 | 2.0 | 0.00 | 0.00 | 0.00 | 43 | 1009.3 |
| 20260503035804 | 57 | 0 | 0.0 | 2.0 | 0.00 | 0.00 | 0.00 | 43 | 1009.3 |
| 20260503035605 | 57 | 0 | 0.0 | 2.0 | 0.00 | 0.00 | 0.00 | 43 | 1009.3 |
| 20260503035405 | 57 | 0 | 0.0 | 2.0 | 0.00 | 0.00 | 0.00 | 43 | 1009.3 |
| 20260503035305 | 57 | 0 | 0.0 | 2.0 | 0.00 | 0.00 | 0.00 | 43 | 1009.3 |
| 20260503035205 | 58 | 107 | 1.0 | 2.0 | 0.00 | 0.00 | 0.00 | 42 | 1009.3 |
| 20260503035105 | 58 | 108 | 1.0 | 2.0 | 0.00 | 0.00 | 0.00 | 42 | 1009.4 |
| 20260503035005 | 58 | 114 | 1.0 | 2.0 | 0.00 | 0.00 | 0.00 | 42 | 1009.3 |
| 20260503034905 | 58 | 122 | 1.0 | 2.0 | 0.00 | 0.00 | 0.00 | 42 | 1009.3 |
| 20260503034705 | 58 | 0 | 0.0 | 2.0 | 0.00 | 0.00 | 0.00 | 41 | 1009.2 |
| 20260503034604 | 58 | 0 | 0.0 | 2.0 | 0.00 | 0.00 | 0.00 | 41 | 1009.1 |
| 20260503034504 | 58 | 0 | 0.0 | 3.0 | 0.00 | 0.00 | 0.00 | 40 | 1009.1 |
| 20260503034304 | 59 | 0 | 0.0 | 5.0 | 0.00 | 0.00 | 0.00 | 40 | 1009.0 |
| 20260503034205 | 59 | 0 | 0.0 | 5.0 | 0.00 | 0.00 | 0.00 | 40 | 1009.1 |
| 20260503034105 | 59 | 258 | 1.0 | 5.0 | 0.00 | 0.00 | 0.00 | 40 | 1009.0 |
| 20260503033905 | 59 | 0 | 0.0 | 5.0 | 0.00 | 0.00 | 0.00 | 40 | 1009.0 |
| 20260503033604 | 59 | 270 | 2.0 | 5.0 | 0.00 | 0.00 | 0.00 | 40 | 1008.9 |
| 20260503033505 | 59 | 270 | 2.0 | 5.0 | 0.00 | 0.00 | 0.00 | 41 | 1008.9 |
| 20260503033405 | 59 | 269 | 3.0 | 5.0 | 0.00 | 0.00 | 0.00 | 40 | 1008.9 |
| 20260503033305 | 59 | 267 | 2.0 | 3.0 | 0.00 | 0.00 | 0.00 | 40 | 1008.9 |
| 20260503033204 | 59 | 265 | 2.0 | 3.0 | 0.00 | 0.00 | 0.00 | 40 | 1008.9 |
| 20260503033005 | 59 | 263 | 1.0 | 2.0 | 0.00 | 0.00 | 0.00 | 40 | 1008.8 |
| 20260503032904 | 59 | 269 | 2.0 | 2.0 | 0.00 | 0.00 | 0.00 | 39 | 1008.9 |
| 20260503032805 | 59 | 271 | 1.0 | 2.0 | 0.00 | 0.00 | 0.00 | 40 | 1008.8 |
| 20260503032705 | 59 | 271 | 1.0 | 3.0 | 0.00 | 0.00 | 0.00 | 39 | 1008.8 |
| 20260503032605 | 59 | 271 | 1.0 | 3.0 | 0.00 | 0.00 | 0.00 | 39 | 1008.7 |
| 20260503032504 | 59 | 271 | 1.0 | 3.0 | 0.00 | 0.00 | 0.00 | 39 | 1008.8 |
| 20260503032305 | 59 | 0 | 0.0 | 3.0 | 0.00 | 0.00 | 0.00 | 39 | 1008.8 |
| 20260503032204 | 59 | 0 | 0.0 | 3.0 | 0.00 | 0.00 | 0.00 | 39 | 1008.7 |
| 20260503032005 | 59 | 260 | 1.0 | 4.0 | 0.00 | 0.00 | 0.00 | 39 | 1008.7 |
| 20260503031905 | 59 | 256 | 1.0 | 4.0 | 0.00 | 0.00 | 0.00 | 39 | 1008.8 |
| 20260503031805 | 60 | 254 | 1.0 | 4.0 | 0.00 | 0.00 | 0.00 | 39 | 1008.8 |
| 20260503031705 | 60 | 252 | 2.0 | 4.0 | 0.00 | 0.00 | 0.00 | 39 | 1008.8 |
| 20260503031505 | 60 | 245 | 1.0 | 4.0 | 0.00 | 0.00 | 0.00 | 38 | 1008.8 |
| 20260503031406 | 60 | 240 | 2.0 | 4.0 | 0.00 | 0.00 | 0.00 | 38 | 1008.8 |
| 20260503031304 | 60 | 239 | 2.0 | 4.0 | 0.00 | 0.00 | 0.00 | 38 | 1008.8 |
| 20260503031105 | 60 | 235 | 2.0 | 3.0 | 0.00 | 0.00 | 0.00 | 37 | 1008.8 |
| 20260503031005 | 60 | 255 | 1.0 | 3.0 | 0.00 | 0.00 | 0.00 | 37 | 1008.8 |
| 20260503030904 | 60 | 0 | 0.0 | 1.0 | 0.00 | 0.00 | 0.00 | 37 | 1008.8 |
| 20260503030805 | 60 | 0 | 0.0 | 1.0 | 0.00 | 0.00 | 0.00 | 37 | 1008.8 |
| 20260503030708 | 60 | 0 | 0.0 | 1.0 | 0.00 | 0.00 | 0.00 | 35 | 1008.6 |
| 20260503030605 | 60 | 0 | 0.0 | 1.0 | 0.00 | 0.00 | 0.00 | 35 | 1008.8 |
| 20260503030504 | 60 | 0 | 0.0 | 2.0 | 0.00 | 0.00 | 0.00 | 35 | 1008.8 |
| 20260503030405 | 60 | 0 | 0.0 | 2.0 | 0.00 | 0.00 | 0.00 | 35 | 1008.7 |
| 20260503030305 | 60 | 0 | 0.0 | 2.0 | 0.00 | 0.00 | 0.00 | 35 | 1008.7 |
| 20260503030205 | 60 | 0 | 0.0 | 2.0 | 0.00 | 0.00 | 0.00 | 35 | 1008.7 |
| 20260503030105 | 60 | 0 | 0.0 | 2.0 | 0.00 | 0.00 | 0.00 | 35 | 1008.7 |
| 20260503030004 | 61 | 0 | 0.0 | 2.0 | 0.00 | 0.00 | 0.00 | 35 | 1008.6 |
| 20260503025905 | 61 | 0 | 0.0 | 2.0 | 0.00 | 0.00 | 0.00 | 34 | 1008.7 |
| 20260503025805 | 61 | 0 | 0.0 | 2.0 | 0.00 | 0.00 | 0.00 | 34 | 1008.6 |
| 20260503025605 | 61 | 0 | 0.0 | 2.0 | 0.00 | 0.00 | 0.00 | 34 | 1008.5 |
| 20260503025504 | 62 | 0 | 0.0 | 2.0 | 0.00 | 0.00 | 0.00 | 34 | 1008.5 |
| 20260503025305 | 62 | 319 | 1.0 | 2.0 | 0.00 | 0.00 | 0.00 | 34 | 1008.6 |
| 20260503025204 | 62 | 340 | 1.0 | 2.0 | 0.00 | 0.00 | 0.00 | 34 | 1008.5 |
| 20260503025105 | 62 | 125 | 1.0 | 2.0 | 0.00 | 0.00 | 0.00 | 34 | 1008.6 |
| 20260503024805 | 63 | 0 | 0.0 | 2.0 | 0.00 | 0.00 | 0.00 | 33 | 1008.6 |
| 20260503024704 | 63 | 0 | 0.0 | 2.0 | 0.00 | 0.00 | 0.00 | 33 | 1008.6 |
| 20260503024604 | 63 | 0 | 0.0 | 2.0 | 0.00 | 0.00 | 0.00 | 33 | 1008.8 |
| 20260503024505 | 63 | 0 | 0.0 | 2.0 | 0.00 | 0.00 | 0.00 | 33 | 1008.7 |
| 20260503024405 | 63 | 0 | 0.0 | 2.0 | 0.00 | 0.00 | 0.00 | 33 | 1008.6 |
| 20260503024305 | 64 | 0 | 0.0 | 2.0 | 0.00 | 0.00 | 0.00 | 32 | 1008.8 |
| 20260503024205 | 64 | 0 | 0.0 | 2.0 | 0.00 | 0.00 | 0.00 | 32 | 1008.7 |
| 20260503024105 | 64 | 63 | 1.0 | 2.0 | 0.00 | 0.00 | 0.00 | 30 | 1008.6 |
| 20260503023905 | 64 | 63 | 2.0 | 2.0 | 0.00 | 0.00 | 0.00 | 30 | 1008.6 |
| 20260503023805 | 64 | 63 | 1.0 | 3.0 | 0.00 | 0.00 | 0.00 | 30 | 1008.5 |
| 20260503023706 | 64 | 66 | 1.0 | 3.0 | 0.00 | 0.00 | 0.00 | 30 | 1008.6 |
| 20260503023605 | 64 | 0 | 0.0 | 3.0 | 0.00 | 0.00 | 0.00 | 30 | 1008.7 |
| 20260503023504 | 64 | 0 | 0.0 | 3.0 | 0.00 | 0.00 | 0.00 | 30 | 1008.7 |
| 20260503023405 | 64 | 0 | 0.0 | 3.0 | 0.00 | 0.00 | 0.00 | 30 | 1008.7 |
| 20260503023304 | 64 | 0 | 0.0 | 7.0 | 0.00 | 0.00 | 0.00 | 30 | 1008.7 |
| 20260503023206 | 64 | 0 | 0.0 | 7.0 | 0.00 | 0.00 | 0.00 | 30 | 1008.5 |
| 20260503023105 | 64 | 0 | 0.0 | 7.0 | 0.00 | 0.00 | 0.00 | 30 | 1008.7 |
| 20260503023005 | 64 | 64 | 1.0 | 7.0 | 0.00 | 0.00 | 0.00 | 30 | 1008.6 |
| 20260503022905 | 65 | 63 | 2.0 | 7.0 | 0.00 | 0.00 | 0.00 | 30 | 1008.7 |
| 20260503022705 | 65 | 0 | 0.0 | 7.0 | 0.00 | 0.00 | 0.00 | 30 | 1008.6 |
| 20260503022604 | 65 | 64 | 1.0 | 7.0 | 0.00 | 0.00 | 0.00 | 30 | 1008.6 |
| 20260503022404 | 65 | 63 | 1.0 | 7.0 | 0.00 | 0.00 | 0.00 | 29 | 1008.7 |
| 20260503022305 | 65 | 65 | 2.0 | 7.0 | 0.00 | 0.00 | 0.00 | 28 | 1008.7 |
| 20260503022205 | 65 | 78 | 2.0 | 4.0 | 0.00 | 0.00 | 0.00 | 28 | 1008.6 |
| 20260503022104 | 65 | 80 | 1.0 | 4.0 | 0.00 | 0.00 | 0.00 | 28 | 1008.8 |
| 20260503022005 | 65 | 0 | 0.0 | 4.0 | 0.00 | 0.00 | 0.00 | 28 | 1008.8 |
| 20260503021904 | 65 | 0 | 0.0 | 4.0 | 0.00 | 0.00 | 0.00 | 28 | 1008.8 |
| 20260503021805 | 65 | 0 | 0.0 | 4.0 | 0.00 | 0.00 | 0.00 | 28 | 1008.8 |
| 20260503021704 | 66 | 0 | 0.0 | 4.0 | 0.00 | 0.00 | 0.00 | 28 | 1008.8 |
| 20260503021605 | 66 | 87 | 1.0 | 6.0 | 0.00 | 0.00 | 0.00 | 27 | 1008.8 |
| 20260503021504 | 66 | 88 | 1.0 | 6.0 | 0.00 | 0.00 | 0.00 | 27 | 1008.8 |
| 20260503021405 | 66 | 88 | 2.0 | 6.0 | 0.00 | 0.00 | 0.00 | 27 | 1008.8 |
| 20260503021304 | 66 | 88 | 2.0 | 6.0 | 0.00 | 0.00 | 0.00 | 27 | 1008.8 |
| 20260503021205 | 66 | 88 | 2.0 | 6.0 | 0.00 | 0.00 | 0.00 | 27 | 1008.8 |
| 20260503021104 | 66 | 90 | 2.0 | 6.0 | 0.00 | 0.00 | 0.00 | 27 | 1008.8 |
| 20260503021005 | 66 | 90 | 2.0 | 6.0 | 0.00 | 0.00 | 0.00 | 27 | 1008.8 |
| 20260503020904 | 66 | 90 | 3.0 | 8.0 | 0.00 | 0.00 | 0.00 | 27 | 1008.8 |
| 20260503020705 | 66 | 93 | 4.0 | 8.0 | 0.00 | 0.00 | 0.00 | 27 | 1008.8 |
| 20260503020505 | 66 | 90 | 4.0 | 8.0 | 0.00 | 0.00 | 0.00 | 27 | 1008.8 |
| 20260503020404 | 66 | 90 | 4.0 | 8.0 | 0.00 | 0.00 | 0.00 | 27 | 1008.8 |
| 20260503020305 | 66 | 90 | 4.0 | 8.0 | 0.00 | 0.00 | 0.00 | 27 | 1008.9 |
| 20260503020204 | 66 | 90 | 4.0 | 8.0 | 0.00 | 0.00 | 0.00 | 27 | 1008.9 |
| 20260503020105 | 66 | 90 | 4.0 | 11.0 | 0.00 | 0.00 | 0.00 | 27 | 1008.9 |
| 20260503020004 | 66 | 90 | 5.0 | 11.0 | 0.00 | 0.00 | 0.00 | 27 | 1008.9 |
| 20260503015905 | 66 | 92 | 5.0 | 11.0 | 0.00 | 0.00 | 0.00 | 27 | 1008.8 |
| 20260503015804 | 66 | 93 | 4.0 | 11.0 | 0.00 | 0.00 | 0.00 | 27 | 1008.8 |
| 20260503015705 | 66 | 91 | 5.0 | 11.0 | 0.00 | 0.00 | 0.00 | 27 | 1008.9 |
| 20260503015605 | 66 | 91 | 5.0 | 11.0 | 0.00 | 0.00 | 0.00 | 27 | 1008.9 |
| 20260503015505 | 66 | 93 | 4.0 | 11.0 | 0.00 | 0.00 | 0.00 | 27 | 1008.9 |
| 20260503015405 | 66 | 93 | 3.0 | 11.0 | 0.00 | 0.00 | 0.00 | 27 | 1008.9 |
| 20260503015205 | 67 | 91 | 5.0 | 11.0 | 0.00 | 0.00 | 0.00 | 27 | 1009.0 |
| 20260503015105 | 67 | 90 | 7.0 | 11.0 | 0.00 | 0.00 | 0.00 | 27 | 1008.9 |
| 20260503015005 | 67 | 89 | 8.0 | 10.0 | 0.00 | 0.00 | 0.00 | 27 | 1008.9 |
| 20260503014905 | 67 | 82 | 4.0 | 7.0 | 0.00 | 0.00 | 0.00 | 27 | 1009.0 |
| 20260503014805 | 67 | 73 | 4.0 | 4.0 | 0.00 | 0.00 | 0.00 | 27 | 1009.0 |
| 20260503014705 | 67 | 69 | 4.0 | 4.0 | 0.00 | 0.00 | 0.00 | 27 | 1009.0 |
| 20260503014605 | 67 | 60 | 3.0 | 4.0 | 0.00 | 0.00 | 0.00 | 26 | 1009.0 |
| 20260503014505 | 67 | 52 | 3.0 | 4.0 | 0.00 | 0.00 | 0.00 | 26 | 1008.9 |
| 20260503014405 | 67 | 30 | 2.0 | 3.0 | 0.00 | 0.00 | 0.00 | 26 | 1008.9 |
| 20260503014104 | 67 | 259 | 1.0 | 4.0 | 0.00 | 0.00 | 0.00 | 26 | 1009.0 |
| 20260503013905 | 67 | 0 | 0.0 | 5.0 | 0.00 | 0.00 | 0.00 | 26 | 1008.9 |
| 20260503013804 | 67 | 0 | 0.0 | 5.0 | 0.00 | 0.00 | 0.00 | 26 | 1008.9 |
| 20260503013705 | 67 | 0 | 0.0 | 5.0 | 0.00 | 0.00 | 0.00 | 26 | 1008.9 |
| 20260503013605 | 67 | 255 | 1.0 | 5.0 | 0.00 | 0.00 | 0.00 | 26 | 1008.8 |
| 20260503013505 | 67 | 255 | 1.0 | 5.0 | 0.00 | 0.00 | 0.00 | 27 | 1008.8 |
| 20260503013404 | 67 | 258 | 2.0 | 5.0 | 0.00 | 0.00 | 0.00 | 27 | 1008.8 |
| 20260503013305 | 67 | 261 | 2.0 | 5.0 | 0.00 | 0.00 | 0.00 | 26 | 1008.8 |
| 20260503013205 | 67 | 261 | 3.0 | 5.0 | 0.00 | 0.00 | 0.00 | 26 | 1008.7 |
| 20260503013105 | 67 | 260 | 3.0 | 5.0 | 0.00 | 0.00 | 0.00 | 25 | 1008.7 |
| 20260503013004 | 67 | 259 | 4.0 | 5.0 | 0.00 | 0.00 | 0.00 | 25 | 1008.7 |
| 20260503012906 | 67 | 256 | 3.0 | 5.0 | 0.00 | 0.00 | 0.00 | 25 | 1008.6 |
| 20260503012804 | 67 | 253 | 4.0 | 5.0 | 0.00 | 0.00 | 0.00 | 25 | 1008.7 |
| 20260503012705 | 67 | 251 | 4.0 | 5.0 | 0.00 | 0.00 | 0.00 | 25 | 1008.7 |
| 20260503012604 | 67 | 259 | 4.0 | 5.0 | 0.00 | 0.00 | 0.00 | 25 | 1008.8 |
| 20260503012505 | 67 | 258 | 2.0 | 5.0 | 0.00 | 0.00 | 0.00 | 25 | 1008.7 |
| 20260503012404 | 68 | 245 | 2.0 | 3.0 | 0.00 | 0.00 | 0.00 | 25 | 1008.7 |
| 20260503012306 | 68 | 233 | 2.0 | 3.0 | 0.00 | 0.00 | 0.00 | 24 | 1008.7 |
| 20260503012204 | 68 | 209 | 1.0 | 2.0 | 0.00 | 0.00 | 0.00 | 24 | 1008.7 |
| 20260503012104 | 68 | 0 | 0.0 | 2.0 | 0.00 | 0.00 | 0.00 | 24 | 1008.7 |
| 20260503011904 | 68 | 0 | 0.0 | 5.0 | 0.00 | 0.00 | 0.00 | 24 | 1008.8 |
| 20260503011805 | 68 | 0 | 0.0 | 5.0 | 0.00 | 0.00 | 0.00 | 24 | 1008.9 |
| 20260503011604 | 68 | 125 | 1.0 | 5.0 | 0.00 | 0.00 | 0.00 | 24 | 1008.8 |
| 20260503011505 | 68 | 116 | 1.0 | 5.0 | 0.00 | 0.00 | 0.00 | 24 | 1008.9 |
| 20260503011404 | 68 | 0 | 0.0 | 5.0 | 0.00 | 0.00 | 0.00 | 24 | 1009.0 |
| 20260503011305 | 68 | 0 | 0.0 | 5.0 | 0.00 | 0.00 | 0.00 | 24 | 1008.9 |
| 20260503011204 | 68 | 0 | 0.0 | 5.0 | 0.00 | 0.00 | 0.00 | 24 | 1008.9 |
| 20260503011105 | 68 | 96 | 1.0 | 5.0 | 0.00 | 0.00 | 0.00 | 24 | 1009.0 |
| 20260503011005 | 68 | 92 | 2.0 | 5.0 | 0.00 | 0.00 | 0.00 | 24 | 1009.0 |
| 20260503010905 | 68 | 0 | 0.0 | 6.0 | 0.00 | 0.00 | 0.00 | 24 | 1009.0 |
| 20260503010805 | 68 | 91 | 2.0 | 6.0 | 0.00 | 0.00 | 0.00 | 23 | 1009.0 |
| 20260503010704 | 68 | 91 | 4.0 | 6.0 | 0.00 | 0.00 | 0.00 | 24 | 1008.9 |
| 20260503010605 | 68 | 88 | 4.0 | 6.0 | 0.00 | 0.00 | 0.00 | 24 | 1008.9 |
| 20260503010504 | 68 | 81 | 4.0 | 6.0 | 0.00 | 0.00 | 0.00 | 24 | 1008.9 |
| 20260503010405 | 68 | 64 | 4.0 | 6.0 | 0.00 | 0.00 | 0.00 | 24 | 1009.1 |
| 20260503010205 | 68 | 359 | 4.0 | 7.0 | 0.00 | 0.00 | 0.00 | 24 | 1009.0 |
| 20260503010104 | 68 | 313 | 4.0 | 7.0 | 0.00 | 0.00 | 0.00 | 24 | 1009.0 |
| 20260503005904 | 68 | 287 | 1.0 | 7.0 | 0.00 | 0.00 | 0.00 | 25 | 1009.1 |
| 20260503005805 | 68 | 0 | 0.0 | 7.0 | 0.00 | 0.00 | 0.00 | 25 | 1009.1 |
| 20260503005704 | 68 | 291 | 1.0 | 8.0 | 0.00 | 0.00 | 0.00 | 24 | 1009.1 |
| 20260503005605 | 68 | 295 | 2.0 | 8.0 | 0.00 | 0.00 | 0.00 | 24 | 1009.0 |
| 20260503005504 | 68 | 294 | 2.0 | 8.0 | 0.00 | 0.00 | 0.00 | 24 | 1008.9 |
| 20260503005305 | 69 | 294 | 4.0 | 8.0 | 0.00 | 0.00 | 0.00 | 24 | 1008.9 |
| 20260503005104 | 69 | 299 | 3.0 | 8.0 | 0.00 | 0.00 | 0.00 | 24 | 1008.9 |
| 20260503004904 | 69 | 299 | 2.0 | 8.0 | 0.00 | 0.00 | 0.00 | 24 | 1008.9 |
| 20260503004805 | 69 | 297 | 3.0 | 8.0 | 0.00 | 0.00 | 0.00 | 24 | 1008.8 |
| 20260503004704 | 69 | 293 | 2.0 | 8.0 | 0.00 | 0.00 | 0.00 | 24 | 1008.9 |
| 20260503004605 | 69 | 287 | 2.0 | 8.0 | 0.00 | 0.00 | 0.00 | 24 | 1008.9 |
| 20260503004504 | 69 | 281 | 4.0 | 8.0 | 0.00 | 0.00 | 0.00 | 24 | 1008.9 |
| 20260503004405 | 69 | 279 | 3.0 | 6.0 | 0.00 | 0.00 | 0.00 | 23 | 1008.9 |
| 20260503004304 | 69 | 275 | 2.0 | 5.0 | 0.00 | 0.00 | 0.00 | 23 | 1008.9 |
| 20260503004205 | 69 | 271 | 2.0 | 7.0 | 0.00 | 0.00 | 0.00 | 23 | 1008.9 |
| 20260503004105 | 69 | 279 | 4.0 | 8.0 | 0.00 | 0.00 | 0.00 | 23 | 1008.8 |
| 20260503004005 | 69 | 288 | 4.0 | 8.0 | 0.00 | 0.00 | 0.00 | 23 | 1008.9 |
| 20260503003904 | 69 | 292 | 4.0 | 8.0 | 0.00 | 0.00 | 0.00 | 23 | 1008.9 |
| 20260503003805 | 69 | 297 | 4.0 | 8.0 | 0.00 | 0.00 | 0.00 | 23 | 1008.9 |
| 20260503003704 | 69 | 304 | 4.0 | 11.0 | 0.00 | 0.00 | 0.00 | 23 | 1008.9 |
| 20260503003604 | 69 | 305 | 4.0 | 11.0 | 0.00 | 0.00 | 0.00 | 23 | 1008.9 |
| 20260503003405 | 69 | 300 | 4.0 | 11.0 | 0.00 | 0.00 | 0.00 | 23 | 1008.9 |
| 20260503003305 | 69 | 304 | 3.0 | 11.0 | 0.00 | 0.00 | 0.00 | 23 | 1008.9 |
| 20260503003204 | 69 | 312 | 4.0 | 11.0 | 0.00 | 0.00 | 0.00 | 23 | 1008.9 |
| 20260503003105 | 69 | 304 | 4.0 | 11.0 | 0.00 | 0.00 | 0.00 | 24 | 1008.9 |
| 20260503002905 | 69 | 313 | 3.0 | 11.0 | 0.00 | 0.00 | 0.00 | 25 | 1008.8 |
| 20260503002804 | 69 | 313 | 3.0 | 11.0 | 0.00 | 0.00 | 0.00 | 25 | 1008.9 |
| 20260503002705 | 69 | 313 | 7.0 | 11.0 | 0.00 | 0.00 | 0.00 | 25 | 1008.8 |
| 20260503002605 | 69 | 320 | 4.0 | 11.0 | 0.00 | 0.00 | 0.00 | 25 | 1008.8 |
| 20260503002504 | 69 | 324 | 6.0 | 11.0 | 0.00 | 0.00 | 0.00 | 25 | 1008.9 |
| 20260503002305 | 68 | 333 | 6.0 | 11.0 | 0.00 | 0.00 | 0.00 | 26 | 1008.7 |
| 20260503002204 | 68 | 332 | 5.0 | 11.0 | 0.00 | 0.00 | 0.00 | 26 | 1008.8 |
| 20260503002105 | 68 | 330 | 6.0 | 11.0 | 0.00 | 0.00 | 0.00 | 26 | 1008.7 |
| 20260503002005 | 68 | 329 | 7.0 | 11.0 | 0.00 | 0.00 | 0.00 | 26 | 1008.7 |
| 20260503001905 | 68 | 324 | 7.0 | 11.0 | 0.00 | 0.00 | 0.00 | 26 | 1008.8 |
| 20260503001804 | 69 | 321 | 5.0 | 11.0 | 0.00 | 0.00 | 0.00 | 26 | 1008.7 |
| 20260503001705 | 68 | 317 | 4.0 | 11.0 | 0.00 | 0.00 | 0.00 | 25 | 1008.7 |
| 20260503001505 | 68 | 315 | 4.0 | 11.0 | 0.00 | 0.00 | 0.00 | 25 | 1008.8 |
| 20260503001404 | 68 | 315 | 4.0 | 11.0 | 0.00 | 0.00 | 0.00 | 25 | 1008.8 |
| 20260503001305 | 68 | 315 | 5.0 | 11.0 | 0.00 | 0.00 | 0.00 | 25 | 1008.8 |
| 20260503001205 | 68 | 318 | 6.0 | 11.0 | 0.00 | 0.00 | 0.00 | 25 | 1009.0 |
| 20260503001105 | 68 | 324 | 6.0 | 11.0 | 0.00 | 0.00 | 0.00 | 25 | 1008.9 |
| 20260503001005 | 68 | 322 | 8.0 | 11.0 | 0.00 | 0.00 | 0.00 | 25 | 1008.9 |
| 20260503000904 | 68 | 320 | 8.0 | 11.0 | 0.00 | 0.00 | 0.00 | 25 | 1008.9 |
| 20260503000805 | 68 | 331 | 6.0 | 11.0 | 0.00 | 0.00 | 0.00 | 25 | 1008.9 |
| 20260503000704 | 68 | 340 | 7.0 | 11.0 | 0.00 | 0.00 | 0.00 | 25 | 1008.9 |
| 20260503000605 | 68 | 338 | 4.0 | 11.0 | 0.00 | 0.00 | 0.00 | 25 | 1009.1 |
| 20260503000504 | 68 | 339 | 4.0 | 11.0 | 0.00 | 0.00 | 0.00 | 23 | 1009.0 |
| 20260503000304 | 68 | 333 | 7.0 | 11.0 | 0.00 | 0.00 | 0.00 | 23 | 1009.1 |
| 20260503000205 | 68 | 336 | 4.0 | 11.0 | 0.00 | 0.00 | 0.00 | 24 | 1009.1 |
| 20260503000105 | 68 | 331 | 3.0 | 11.0 | 0.00 | 0.00 | 0.00 | 24 | 1009.1 |
| 20260503000005 | 68 | 334 | 6.0 | 11.0 | 0.00 | 0.00 | 0.00 | 24 | 1009.1 |
| 20260502235904 | 68 | 344 | 4.0 | 11.0 | 0.00 | 0.00 | 0.00 | 24 | 1009.0 |
| 20260502235705 | 68 | 336 | 3.0 | 11.0 | 0.00 | 0.00 | 0.00 | 24 | 1009.0 |
| 20260502235604 | 69 | 355 | 6.0 | 11.0 | 0.00 | 0.00 | 0.00 | 23 | 1009.0 |
| 20260502235505 | 69 | 3 | 5.0 | 11.0 | 0.00 | 0.00 | 0.00 | 23 | 1009.1 |
| 20260502235404 | 69 | 27 | 8.0 | 11.0 | 0.00 | 0.00 | 0.00 | 23 | 1009.0 |
| 20260502235305 | 69 | 48 | 4.0 | 8.0 | 0.00 | 0.00 | 0.00 | 22 | 1008.9 |
| 20260502235105 | 69 | 72 | 2.0 | 11.0 | 0.00 | 0.00 | 0.00 | 22 | 1008.9 |
| 20260502235004 | 69 | 78 | 4.0 | 14.0 | 0.00 | 0.00 | 0.00 | 22 | 1009.0 |
| 20260502234705 | 68 | 83 | 3.0 | 14.0 | 0.00 | 0.00 | 0.00 | 23 | 1009.0 |
| 20260502234604 | 68 | 83 | 4.0 | 14.0 | 0.00 | 0.00 | 0.00 | 23 | 1008.9 |
| 20260502234505 | 68 | 83 | 5.0 | 14.0 | 0.00 | 0.00 | 0.00 | 22 | 1009.0 |
| 20260502234404 | 68 | 84 | 4.0 | 14.0 | 0.00 | 0.00 | 0.00 | 23 | 1009.1 |
| 20260502234304 | 68 | 84 | 5.0 | 14.0 | 0.00 | 0.00 | 0.00 | 22 | 1008.9 |
| 20260502234205 | 68 | 84 | 5.0 | 14.0 | 0.00 | 0.00 | 0.00 | 23 | 1008.9 |
| 20260502234104 | 68 | 84 | 8.0 | 14.0 | 0.00 | 0.00 | 0.00 | 23 | 1008.9 |
| 20260502234005 | 68 | 79 | 6.0 | 13.0 | 0.00 | 0.00 | 0.00 | 23 | 1008.9 |
| 20260502233904 | 68 | 74 | 8.0 | 14.0 | 0.00 | 0.00 | 0.00 | 23 | 1008.9 |
| 20260502233805 | 68 | 68 | 8.0 | 14.0 | 0.00 | 0.00 | 0.00 | 23 | 1008.9 |
| 20260502233705 | 68 | 71 | 8.0 | 17.0 | 0.00 | 0.00 | 0.00 | 23 | 1008.9 |
| 20260502233605 | 68 | 74 | 9.0 | 17.0 | 0.00 | 0.00 | 0.00 | 24 | 1008.8 |
| 20260502233505 | 68 | 77 | 6.0 | 17.0 | 0.00 | 0.00 | 0.00 | 24 | 1008.9 |
| 20260502233405 | 68 | 77 | 6.0 | 17.0 | 0.00 | 0.00 | 0.00 | 24 | 1008.7 |
| 20260502233204 | 68 | 75 | 8.0 | 17.0 | 0.00 | 0.00 | 0.00 | 24 | 1008.7 |
| 20260502233105 | 68 | 76 | 9.0 | 21.0 | 0.00 | 0.00 | 0.00 | 25 | 1008.7 |
| 20260502233005 | 68 | 79 | 9.0 | 21.0 | 0.00 | 0.00 | 0.00 | 25 | 1008.8 |
| 20260502232905 | 68 | 85 | 11.0 | 21.0 | 0.00 | 0.00 | 0.00 | 25 | 1008.7 |
| 20260502232704 | 68 | 80 | 10.0 | 21.0 | 0.00 | 0.00 | 0.00 | 25 | 1008.5 |
| 20260502232604 | 68 | 79 | 7.0 | 25.0 | 0.00 | 0.00 | 0.00 | 25 | 1008.6 |
| 20260502232505 | 68 | 75 | 8.0 | 25.0 | 0.00 | 0.00 | 0.00 | 25 | 1008.5 |
| 20260502232404 | 67 | 74 | 4.0 | 25.0 | 0.00 | 0.00 | 0.00 | 24 | 1008.5 |
| 20260502232305 | 67 | 75 | 8.0 | 25.0 | 0.00 | 0.00 | 0.00 | 25 | 1008.5 |
| 20260502232204 | 67 | 76 | 6.0 | 25.0 | 0.00 | 0.00 | 0.00 | 24 | 1008.6 |
| 20260502232005 | 67 | 79 | 14.0 | 25.0 | 0.00 | 0.00 | 0.00 | 30 | 1008.4 |
| 20260502231904 | 67 | 80 | 14.0 | 25.0 | 0.00 | 0.00 | 0.00 | 30 | 1008.5 |
| 20260502231805 | 67 | 82 | 13.0 | 25.0 | 0.00 | 0.00 | 0.00 | 32 | 1008.5 |
| 20260502231704 | 67 | 86 | 15.0 | 25.0 | 0.00 | 0.00 | 0.00 | 30 | 1008.5 |
| 20260502231605 | 67 | 84 | 17.0 | 23.0 | 0.00 | 0.00 | 0.00 | 33 | 1008.3 |
| 20260502231504 | 67 | 88 | 17.0 | 23.0 | 0.00 | 0.00 | 0.00 | 32 | 1008.3 |
| 20260502231404 | 68 | 89 | 15.0 | 23.0 | 0.00 | 0.00 | 0.00 | 32 | 1008.3 |
| 20260502231305 | 68 | 90 | 20.0 | 23.0 | 0.00 | 0.00 | 0.00 | 31 | 1008.3 |
| 20260502231204 | 68 | 90 | 13.0 | 21.0 | 0.00 | 0.00 | 0.00 | 27 | 1008.3 |
| 20260502231105 | 68 | 90 | 9.0 | 21.0 | 0.00 | 0.00 | 0.00 | 27 | 1008.3 |
| 20260502231004 | 68 | 89 | 13.0 | 21.0 | 0.00 | 0.00 | 0.00 | 26 | 1008.3 |
| 20260502230904 | 68 | 87 | 11.0 | 18.0 | 0.00 | 0.00 | 0.00 | 23 | 1008.3 |
| 20260502230704 | 68 | 87 | 13.0 | 18.0 | 0.00 | 0.00 | 0.00 | 24 | 1008.4 |
| 20260502230605 | 68 | 90 | 9.0 | 18.0 | 0.00 | 0.00 | 0.00 | 26 | 1008.3 |
| 20260502230404 | 68 | 90 | 8.0 | 18.0 | 0.00 | 0.00 | 0.00 | 26 | 1008.5 |
| 20260502230305 | 68 | 88 | 9.0 | 18.0 | 0.00 | 0.00 | 0.00 | 24 | 1008.4 |
| 20260502230204 | 69 | 83 | 11.0 | 21.0 | 0.00 | 0.00 | 0.00 | 24 | 1008.4 |
| 20260502230105 | 69 | 83 | 10.0 | 21.0 | 0.00 | 0.00 | 0.00 | 24 | 1008.5 |
| 20260502230005 | 69 | 80 | 12.0 | 21.0 | 0.00 | 0.00 | 0.00 | 22 | 1008.4 |
| 20260502225905 | 69 | 77 | 13.0 | 21.0 | 0.00 | 0.00 | 0.00 | 22 | 1008.4 |
| 20260502225804 | 69 | 76 | 13.0 | 21.0 | 0.00 | 0.00 | 0.00 | 21 | 1008.3 |
| 20260502225605 | 70 | 77 | 11.0 | 21.0 | 0.00 | 0.00 | 0.00 | 21 | 1008.3 |
| 20260502225404 | 70 | 72 | 11.0 | 21.0 | 0.00 | 0.00 | 0.00 | 19 | 1008.3 |
| 20260502225204 | 70 | 84 | 12.0 | 21.0 | 0.00 | 0.00 | 0.00 | 18 | 1008.1 |
| 20260502225105 | 70 | 81 | 10.0 | 21.0 | 0.00 | 0.00 | 0.00 | 19 | 1008.1 |
| 20260502225004 | 70 | 82 | 13.0 | 21.0 | 0.00 | 0.00 | 0.00 | 17 | 1008.2 |